Wetterdaten: Sonntag, 09.12.2018
Datum Zeit Temp. Aussen Temp. o. S. +5cm Feuchte Auss Luftdruck Regen Sonnenschein Regendauer Solar Windben Empfang
09.12.2018 00:00 9,9 C 8,3 C 7,8 C 92 % 992,2 hPa 0,0 l/m 0 min 0 min 0 W/m 19,3 km/h (3 Bft) 97,83 %
09.12.2018 00:02 9,9 C 8,3 C 7,8 C 91 % 992,4 hPa 0,0 l/m 0 min 0 min 0 W/m 45,1 km/h (6 Bft) 95,12 %
09.12.2018 00:04 9,9 C 8,3 C 7,8 C 91 % 992,5 hPa 0,0 l/m 0 min 2 min 0 W/m 32,2 km/h (5 Bft) 97,87 %
09.12.2018 00:07 9,9 C 8,3 C 7,8 C 91 % 992,4 hPa 0,0 l/m 0 min 0 min 0 W/m 38,6 km/h (5 Bft) 97,87 %
09.12.2018 00:08 9,9 C 8,3 C 7,8 C 91 % 992,4 hPa 0,0 l/m 0 min 0 min 0 W/m 38,6 km/h (5 Bft) 97,87 %
09.12.2018 00:10 9,9 C 8,3 C 7,8 C 90 % 992,3 hPa 0,0 l/m 0 min 0 min 0 W/m 38,6 km/h (5 Bft) 97,16 %
09.12.2018 00:12 10,0 C 8,3 C 7,8 C 90 % 992,4 hPa 0,0 l/m 0 min 0 min 0 W/m 22,5 km/h (4 Bft) 97,83 %
09.12.2018 00:14 9,9 C 8,3 C 7,8 C 90 % 992,3 hPa 0,0 l/m 0 min 0 min 0 W/m 12,9 km/h (3 Bft) 97,87 %
09.12.2018 00:16 9,9 C 8,3 C 7,8 C 90 % 992,4 hPa 0,0 l/m 0 min 0 min 0 W/m 35,4 km/h (5 Bft) 97,87 %
09.12.2018 00:18 9,9 C 8,3 C 7,8 C 89 % 992,3 hPa 0,0 l/m 0 min 0 min 0 W/m 41,8 km/h (6 Bft) 97,87 %
09.12.2018 00:20 10,0 C 8,3 C 7,8 C 89 % 992,2 hPa 0,0 l/m 0 min 0 min 0 W/m 25,7 km/h (4 Bft) 97,87 %
09.12.2018 00:22 10,0 C 8,3 C 7,8 C 89 % 992,3 hPa 0,0 l/m 0 min 0 min 0 W/m 22,5 km/h (4 Bft) 100,00 %
09.12.2018 00:24 10,0 C 8,3 C 7,8 C 89 % 992,4 hPa 0,0 l/m 0 min 0 min 0 W/m 19,3 km/h (3 Bft) 97,83 %
09.12.2018 00:26 9,9 C 8,3 C 7,8 C 88 % 992,0 hPa 0,0 l/m 0 min 0 min 0 W/m 25,7 km/h (4 Bft) 100,00 %
09.12.2018 00:28 9,9 C 8,3 C 7,8 C 88 % 992,1 hPa 0,0 l/m 0 min 0 min 0 W/m 22,5 km/h (4 Bft) 100,00 %
09.12.2018 00:30 9,9 C 8,3 C 7,8 C 88 % 992,1 hPa 0,0 l/m 0 min 0 min 0 W/m 32,2 km/h (5 Bft) 100,00 %
09.12.2018 00:32 9,9 C 8,3 C 7,8 C 88 % 992,0 hPa 0,0 l/m 0 min 0 min 0 W/m 32,2 km/h (5 Bft) 97,87 %
09.12.2018 00:34 9,9 C 8,3 C 7,8 C 87 % 992,1 hPa 0,0 l/m 0 min 0 min 0 W/m 22,5 km/h (4 Bft) 100,00 %
09.12.2018 00:36 9,9 C 8,3 C 7,8 C 87 % 992,2 hPa 0,0 l/m 0 min 0 min 0 W/m 32,2 km/h (5 Bft) 97,83 %
09.12.2018 00:38 9,9 C 8,3 C 7,8 C 87 % 992,1 hPa 0,0 l/m 0 min 0 min 0 W/m 25,7 km/h (4 Bft) 100,00 %
09.12.2018 00:40 9,9 C 8,3 C 7,8 C 87 % 992,1 hPa 0,0 l/m 0 min 0 min 0 W/m 45,1 km/h (6 Bft) 97,14 %
09.12.2018 00:42 9,9 C 8,3 C 7,8 C 86 % 992,2 hPa 0,0 l/m 0 min 0 min 0 W/m 29,0 km/h (5 Bft) 100,00 %
09.12.2018 00:44 9,9 C 8,3 C 7,8 C 86 % 992,1 hPa 0,0 l/m 0 min 0 min 0 W/m 38,6 km/h (5 Bft) 100,00 %
09.12.2018 00:46 9,9 C 8,3 C 7,8 C 86 % 992,1 hPa 0,0 l/m 0 min 0 min 0 W/m 32,2 km/h (5 Bft) 100,00 %
09.12.2018 00:48 9,9 C 8,3 C 7,8 C 86 % 992,2 hPa 0,0 l/m 0 min 0 min 0 W/m 29,0 km/h (5 Bft) 100,00 %
09.12.2018 00:50 9,9 C 8,3 C 7,8 C 86 % 992,1 hPa 0,0 l/m 0 min 0 min 0 W/m 29,0 km/h (5 Bft) 100,00 %
09.12.2018 00:52 9,9 C 8,3 C 7,8 C 86 % 992,2 hPa 0,0 l/m 0 min 0 min 0 W/m 12,9 km/h (3 Bft) 100,00 %
09.12.2018 00:54 9,9 C 8,3 C 7,8 C 85 % 992,2 hPa 0,0 l/m 0 min 0 min 0 W/m 32,2 km/h (5 Bft) 100,00 %
09.12.2018 00:56 9,9 C 8,3 C 7,8 C 85 % 992,1 hPa 0,0 l/m 0 min 0 min 0 W/m 19,3 km/h (3 Bft) 100,00 %
09.12.2018 00:58 9,9 C 8,3 C 7,8 C 85 % 992,1 hPa 0,0 l/m 0 min 0 min 0 W/m 16,1 km/h (3 Bft) 100,00 %
09.12.2018 01:00 9,9 C 7,8 C 7,2 C 86 % 992,5 hPa 0,0 l/m 0 min 2 min 0 W/m 29,0 km/h (5 Bft) 100,00 %
09.12.2018 01:02 9,9 C 7,8 C 7,2 C 86 % 992,1 hPa 0,2 l/m 0 min 2 min 0 W/m 25,7 km/h (4 Bft) 100,00 %
09.12.2018 01:04 9,9 C 7,8 C 7,2 C 87 % 992,2 hPa 0,0 l/m 0 min 2 min 0 W/m 12,9 km/h (3 Bft) 100,00 %
09.12.2018 01:06 9,8 C 7,8 C 7,2 C 87 % 992,4 hPa 0,0 l/m 0 min 2 min 0 W/m 16,1 km/h (3 Bft) 100,00 %
09.12.2018 01:08 9,8 C 7,8 C 7,2 C 87 % 992,5 hPa 0,0 l/m 0 min 2 min 0 W/m 12,9 km/h (3 Bft) 100,00 %
09.12.2018 01:10 9,8 C 7,8 C 7,2 C 87 % 992,4 hPa 0,0 l/m 0 min 2 min 0 W/m 19,3 km/h (3 Bft) 100,00 %
09.12.2018 01:12 9,7 C 7,8 C 7,2 C 88 % 992,6 hPa 0,0 l/m 0 min 2 min 0 W/m 16,1 km/h (3 Bft) 97,87 %
09.12.2018 01:14 9,7 C 7,8 C 7,2 C 88 % 992,3 hPa 0,0 l/m 0 min 2 min 0 W/m 22,5 km/h (4 Bft) 100,00 %
09.12.2018 01:16 9,7 C 7,8 C 7,2 C 88 % 992,5 hPa 0,0 l/m 0 min 2 min 0 W/m 25,7 km/h (4 Bft) 100,00 %
09.12.2018 01:18 9,7 C 7,8 C 7,2 C 88 % 992,4 hPa 0,0 l/m 0 min 2 min 0 W/m 16,1 km/h (3 Bft) 100,00 %
09.12.2018 01:20 9,7 C 8,3 C 7,2 C 88 % 992,4 hPa 0,0 l/m 0 min 2 min 0 W/m 25,7 km/h (4 Bft) 100,00 %
09.12.2018 01:22 9,6 C 8,3 C 7,8 C 88 % 992,4 hPa 0,0 l/m 0 min 0 min 0 W/m 25,7 km/h (4 Bft) 97,87 %
09.12.2018 01:24 9,7 C 8,3 C 7,8 C 87 % 992,4 hPa 0,0 l/m 0 min 2 min 0 W/m 29,0 km/h (5 Bft) 100,00 %
09.12.2018 01:26 9,7 C 8,3 C 7,8 C 87 % 992,6 hPa 0,0 l/m 0 min 2 min 0 W/m 29,0 km/h (5 Bft) 95,65 %
09.12.2018 01:28 9,7 C 8,3 C 7,8 C 87 % 992,4 hPa 0,0 l/m 0 min 0 min 0 W/m 22,5 km/h (4 Bft) 97,87 %
09.12.2018 01:30 9,7 C 8,3 C 7,8 C 87 % 992,3 hPa 0,0 l/m 0 min 2 min 0 W/m 25,7 km/h (4 Bft) 100,00 %
09.12.2018 01:32 9,7 C 8,3 C 7,8 C 87 % 992,4 hPa 0,0 l/m 0 min 0 min 0 W/m 25,7 km/h (4 Bft) 97,87 %
09.12.2018 01:34 9,7 C 8,3 C 7,8 C 87 % 992,4 hPa 0,0 l/m 0 min 2 min 0 W/m 25,7 km/h (4 Bft) 97,87 %
09.12.2018 01:36 9,7 C 8,3 C 7,8 C 87 % 992,4 hPa 0,0 l/m 0 min 0 min 0 W/m 16,1 km/h (3 Bft) 98,33 %
09.12.2018 01:38 9,7 C 8,3 C 7,8 C 87 % 992,5 hPa 0,0 l/m 0 min 0 min 0 W/m 35,4 km/h (5 Bft) 100,00 %
09.12.2018 01:40 9,7 C 8,3 C 7,8 C 87 % 992,3 hPa 0,0 l/m 0 min 2 min 0 W/m 35,4 km/h (5 Bft) 97,14 %
09.12.2018 01:42 9,7 C 8,3 C 7,8 C 87 % 992,3 hPa 0,0 l/m 0 min 0 min 0 W/m 25,7 km/h (4 Bft) 95,83 %
09.12.2018 01:44 9,7 C 8,3 C 7,8 C 87 % 992,3 hPa 0,0 l/m 0 min 0 min 0 W/m 22,5 km/h (4 Bft) 100,00 %
09.12.2018 01:46 9,7 C 8,3 C 7,8 C 87 % 992,4 hPa 0,0 l/m 0 min 0 min 0 W/m 22,5 km/h (4 Bft) 100,00 %
09.12.2018 01:48 9,6 C 8,9 C 7,8 C 87 % 992,3 hPa 0,0 l/m 0 min 0 min 0 W/m 29,0 km/h (5 Bft) 100,00 %
09.12.2018 01:50 9,7 C 8,9 C 7,8 C 87 % 992,4 hPa 0,0 l/m 0 min 0 min 0 W/m 32,2 km/h (5 Bft) 97,56 %
09.12.2018 01:52 9,6 C 8,9 C 7,8 C 87 % 992,4 hPa 0,0 l/m 0 min 0 min 0 W/m 29,0 km/h (5 Bft) 96,00 %
09.12.2018 01:54 9,6 C 8,9 C 7,8 C 88 % 992,4 hPa 0,0 l/m 0 min 2 min 0 W/m 25,7 km/h (4 Bft) 95,92 %
09.12.2018 01:56 9,6 C 8,9 C 7,8 C 88 % 992,5 hPa 0,0 l/m 0 min 2 min 0 W/m 25,7 km/h (4 Bft) 97,87 %
09.12.2018 01:58 9,6 C 8,3 C 7,2 C 88 % 992,4 hPa 0,0 l/m 0 min 2 min 0 W/m 29,0 km/h (5 Bft) 97,87 %
09.12.2018 02:00 9,6 C 8,3 C 7,2 C 88 % 992,5 hPa 0,0 l/m 0 min 2 min 0 W/m 25,7 km/h (4 Bft) 97,87 %
09.12.2018 02:02 9,6 C 8,3 C 7,2 C 88 % 992,7 hPa 0,0 l/m 0 min 2 min 0 W/m 41,8 km/h (6 Bft) 97,62 %
09.12.2018 02:04 9,6 C 8,3 C 7,2 C 88 % 992,5 hPa 0,0 l/m 0 min 2 min 0 W/m 25,7 km/h (4 Bft) 97,87 %
09.12.2018 02:06 9,5 C 8,3 C 7,2 C 88 % 992,5 hPa 0,0 l/m 0 min 2 min 0 W/m 19,3 km/h (3 Bft) 95,74 %
09.12.2018 02:08 9,5 C 8,3 C 7,2 C 88 % 992,6 hPa 0,0 l/m 0 min 2 min 0 W/m 25,7 km/h (4 Bft) 95,92 %
09.12.2018 02:10 9,5 C 8,3 C 7,2 C 88 % 992,5 hPa 0,0 l/m 0 min 2 min 0 W/m 41,8 km/h (6 Bft) 97,83 %
09.12.2018 02:12 9,4 C 8,3 C 7,8 C 88 % 992,4 hPa 0,0 l/m 0 min 2 min 0 W/m 25,7 km/h (4 Bft) 98,00 %
09.12.2018 02:14 9,4 C 8,3 C 7,8 C 88 % 992,4 hPa 0,0 l/m 0 min 2 min 0 W/m 16,1 km/h (3 Bft) 97,87 %
09.12.2018 02:16 9,4 C 8,3 C 7,8 C 88 % 992,5 hPa 0,0 l/m 0 min 2 min 0 W/m 25,7 km/h (4 Bft) 97,87 %
09.12.2018 02:18 9,4 C 8,9 C 7,8 C 88 % 992,3 hPa 0,0 l/m 0 min 2 min 0 W/m 41,8 km/h (6 Bft) 97,87 %
09.12.2018 02:20 9,4 C 8,9 C 7,8 C 88 % 992,3 hPa 0,0 l/m 0 min 2 min 0 W/m 29,0 km/h (5 Bft) 95,35 %
09.12.2018 02:22 9,4 C 8,9 C 7,8 C 88 % 992,7 hPa 0,0 l/m 0 min 2 min 0 W/m 29,0 km/h (5 Bft) 95,92 %
09.12.2018 02:24 9,4 C 8,9 C 7,8 C 88 % 992,5 hPa 0,0 l/m 0 min 2 min 0 W/m 22,5 km/h (4 Bft) 95,92 %
09.12.2018 02:26 9,4 C 8,9 C 7,8 C 88 % 992,5 hPa 0,0 l/m 0 min 2 min 0 W/m 29,0 km/h (5 Bft) 95,65 %
09.12.2018 02:28 9,4 C 8,9 C 7,8 C 88 % 992,7 hPa 0,0 l/m 0 min 2 min 0 W/m 35,4 km/h (5 Bft) 95,74 %
09.12.2018 02:30 9,4 C 8,9 C 7,8 C 88 % 992,7 hPa 0,0 l/m 0 min 2 min 0 W/m 25,7 km/h (4 Bft) 95,24 %
09.12.2018 02:32 9,4 C 8,9 C 7,8 C 87 % 992,5 hPa 0,0 l/m 0 min 0 min 0 W/m 22,5 km/h (4 Bft) 90,00 %
09.12.2018 02:34 9,4 C 8,9 C 8,3 C 87 % 992,7 hPa 0,0 l/m 0 min 0 min 0 W/m 22,5 km/h (4 Bft) 93,75 %
09.12.2018 02:36 9,4 C 8,9 C 8,3 C 87 % 992,6 hPa 0,0 l/m 0 min 0 min 0 W/m 32,2 km/h (5 Bft) 93,75 %
09.12.2018 02:38 9,4 C 8,9 C 8,3 C 87 % 992,7 hPa 0,0 l/m 0 min 0 min 0 W/m 25,7 km/h (4 Bft) 95,65 %
09.12.2018 02:40 9,4 C 8,9 C 8,3 C 87 % 992,8 hPa 0,0 l/m 0 min 0 min 0 W/m 25,7 km/h (4 Bft) 95,74 %
09.12.2018 02:42 9,4 C 8,9 C 7,8 C 86 % 993,0 hPa 0,0 l/m 0 min 0 min 0 W/m 19,3 km/h (3 Bft) 95,45 %
09.12.2018 02:44 9,4 C 8,9 C 7,8 C 86 % 993,3 hPa 0,0 l/m 0 min 0 min 0 W/m 29,0 km/h (5 Bft) 95,92 %
09.12.2018 02:46 9,4 C 8,9 C 7,8 C 86 % 993,0 hPa 0,0 l/m 0 min 0 min 0 W/m 29,0 km/h (5 Bft) 93,75 %
09.12.2018 02:48 9,4 C 8,9 C 7,8 C 86 % 993,0 hPa 0,0 l/m 0 min 0 min 0 W/m 16,1 km/h (3 Bft) 95,74 %
09.12.2018 02:50 9,4 C 8,9 C 7,8 C 86 % 993,0 hPa 0,0 l/m 0 min 0 min 0 W/m 25,7 km/h (4 Bft) 95,65 %
09.12.2018 02:52 9,4 C 8,9 C 7,8 C 86 % 993,1 hPa 0,0 l/m 0 min 0 min 0 W/m 29,0 km/h (5 Bft) 95,74 %
09.12.2018 02:54 9,3 C 8,9 C 7,8 C 86 % 993,2 hPa 0,0 l/m 0 min 0 min 0 W/m 35,4 km/h (5 Bft) 95,74 %
09.12.2018 02:56 9,3 C 8,9 C 7,8 C 86 % 993,1 hPa 0,0 l/m 0 min 0 min 0 W/m 22,5 km/h (4 Bft) 97,87 %
09.12.2018 02:58 9,3 C 8,9 C 7,8 C 86 % 993,3 hPa 0,0 l/m 0 min 0 min 0 W/m 29,0 km/h (5 Bft) 95,74 %
09.12.2018 03:00 9,3 C 8,3 C 7,8 C 86 % 993,3 hPa 0,0 l/m 0 min 2 min 0 W/m 25,7 km/h (4 Bft) 93,62 %
09.12.2018 03:02 9,3 C 7,8 C 7,2 C 86 % 993,2 hPa 0,0 l/m 0 min 2 min 0 W/m 25,7 km/h (4 Bft) 95,65 %
09.12.2018 03:04 9,3 C 7,8 C 7,2 C 86 % 993,3 hPa 0,0 l/m 0 min 2 min 0 W/m 25,7 km/h (4 Bft) 93,62 %
09.12.2018 03:06 9,2 C 7,2 C 6,7 C 86 % 993,2 hPa 0,0 l/m 0 min 2 min 0 W/m 29,0 km/h (5 Bft) 95,83 %
09.12.2018 03:08 9,2 C 7,2 C 6,7 C 87 % 993,4 hPa 0,0 l/m 0 min 2 min 0 W/m 29,0 km/h (5 Bft) 95,65 %
09.12.2018 03:10 9,2 C 7,2 C 6,7 C 87 % 993,3 hPa 0,0 l/m 0 min 2 min 0 W/m 22,5 km/h (4 Bft) 95,74 %
09.12.2018 03:12 9,1 C 7,2 C 6,7 C 88 % 993,4 hPa 0,2 l/m 0 min 2 min 0 W/m 19,3 km/h (3 Bft) 97,87 %
09.12.2018 03:14 9,0 C 6,7 C 6,7 C 88 % 993,3 hPa 0,0 l/m 0 min 2 min 0 W/m 29,0 km/h (5 Bft) 91,49 %
09.12.2018 03:16 8,9 C 6,7 C 6,7 C 89 % 993,5 hPa 0,0 l/m 0 min 2 min 0 W/m 22,5 km/h (4 Bft) 97,87 %
09.12.2018 03:18 8,9 C 6,7 C 6,7 C 89 % 993,5 hPa 0,0 l/m 0 min 2 min 0 W/m 19,3 km/h (3 Bft) 95,74 %
09.12.2018 03:20 8,8 C 6,7 C 6,7 C 89 % 993,6 hPa 0,0 l/m 0 min 2 min 0 W/m 25,7 km/h (4 Bft) 97,83 %
09.12.2018 03:22 8,7 C 6,7 C 6,7 C 89 % 993,4 hPa 0,0 l/m 0 min 2 min 0 W/m 32,2 km/h (5 Bft) 95,74 %
09.12.2018 03:24 8,7 C 6,7 C 6,7 C 89 % 993,4 hPa 0,0 l/m 0 min 2 min 0 W/m 22,5 km/h (4 Bft) 97,87 %
09.12.2018 03:26 8,7 C 6,7 C 6,7 C 90 % 993,5 hPa 0,0 l/m 0 min 2 min 0 W/m 22,5 km/h (4 Bft) 95,74 %
09.12.2018 03:28 8,6 C 6,7 C 6,7 C 90 % 993,6 hPa 0,0 l/m 0 min 2 min 0 W/m 35,4 km/h (5 Bft) 97,87 %
09.12.2018 03:30 8,6 C 6,7 C 6,1 C 90 % 993,4 hPa 0,2 l/m 0 min 2 min 0 W/m 38,6 km/h (5 Bft) 97,87 %
09.12.2018 03:32 8,5 C 6,7 C 6,1 C 90 % 993,4 hPa 0,0 l/m 0 min 2 min 0 W/m 25,7 km/h (4 Bft) 97,83 %
09.12.2018 03:34 8,4 C 6,1 C 6,1 C 90 % 993,6 hPa 0,8 l/m 0 min 2 min 0 W/m 29,0 km/h (5 Bft) 97,87 %
09.12.2018 03:36 8,3 C 6,1 C 5,6 C 90 % 993,5 hPa 0,8 l/m 0 min 2 min 0 W/m 22,5 km/h (4 Bft) 97,87 %
09.12.2018 03:38 8,1 C 6,1 C 5,6 C 90 % 993,3 hPa 0,4 l/m 0 min 2 min 0 W/m 22,5 km/h (4 Bft) 97,87 %
09.12.2018 03:40 8,0 C 6,1 C 5,6 C 90 % 993,4 hPa 0,0 l/m 0 min 2 min 0 W/m 32,2 km/h (5 Bft) 100,00 %
09.12.2018 03:42 7,9 C 6,1 C 5,6 C 90 % 993,3 hPa 0,0 l/m 0 min 2 min 0 W/m 25,7 km/h (4 Bft) 100,00 %
09.12.2018 03:44 7,8 C 6,1 C 5,6 C 91 % 993,7 hPa 0,0 l/m 0 min 0 min 0 W/m 41,8 km/h (6 Bft) 100,00 %
09.12.2018 03:46 7,8 C 6,1 C 5,6 C 91 % 993,6 hPa 0,0 l/m 0 min 2 min 0 W/m 29,0 km/h (5 Bft) 97,87 %
09.12.2018 03:48 7,8 C 6,7 C 5,6 C 91 % 993,5 hPa 0,0 l/m 0 min 2 min 0 W/m 41,8 km/h (6 Bft) 100,00 %
09.12.2018 03:50 7,8 C 6,7 C 5,6 C 91 % 993,4 hPa 0,0 l/m 0 min 2 min 0 W/m 25,7 km/h (4 Bft) 100,00 %
09.12.2018 03:52 7,8 C 6,7 C 6,1 C 92 % 993,5 hPa 0,0 l/m 0 min 2 min 0 W/m 29,0 km/h (5 Bft) 100,00 %
09.12.2018 03:54 7,8 C 6,7 C 6,1 C 92 % 993,3 hPa 0,0 l/m 0 min 2 min 0 W/m 22,5 km/h (4 Bft) 100,00 %
09.12.2018 03:56 7,9 C 6,7 C 6,1 C 92 % 993,4 hPa 0,0 l/m 0 min 0 min 0 W/m 29,0 km/h (5 Bft) 97,83 %
09.12.2018 03:58 7,9 C 6,7 C 6,1 C 92 % 993,4 hPa 0,0 l/m 0 min 0 min 0 W/m 22,5 km/h (4 Bft) 100,00 %
09.12.2018 04:00 7,9 C 6,7 C 6,1 C 92 % 993,4 hPa 0,0 l/m 0 min 0 min 0 W/m 22,5 km/h (4 Bft) 100,00 %
09.12.2018 04:05 7,9 C 6,7 C 6,1 C 92 % 993,4 hPa 0,0 l/m 0 min 0 min 0 W/m 19,3 km/h (3 Bft) 98,36 %
09.12.2018 04:06 7,9 C 6,7 C 6,1 C 92 % 993,4 hPa 0,0 l/m 0 min 0 min 0 W/m 22,5 km/h (4 Bft) 100,00 %
09.12.2018 04:08 7,9 C 6,7 C 6,1 C 93 % 993,4 hPa 0,0 l/m 0 min 0 min 0 W/m 22,5 km/h (4 Bft) 100,00 %
09.12.2018 04:10 7,9 C 6,7 C 6,1 C 93 % 993,6 hPa 0,0 l/m 0 min 0 min 0 W/m 29,0 km/h (5 Bft) 100,00 %
09.12.2018 04:12 7,9 C 6,7 C 6,1 C 93 % 993,4 hPa 0,0 l/m 0 min 0 min 0 W/m 16,1 km/h (3 Bft) 97,87 %
09.12.2018 04:14 7,9 C 6,7 C 6,1 C 93 % 993,4 hPa 0,0 l/m 0 min 0 min 0 W/m 22,5 km/h (4 Bft) 100,00 %
09.12.2018 04:16 7,9 C 6,7 C 6,1 C 93 % 993,4 hPa 0,0 l/m 0 min 0 min 0 W/m 29,0 km/h (5 Bft) 97,87 %
09.12.2018 04:18 7,9 C 6,7 C 6,1 C 93 % 993,5 hPa 0,0 l/m 0 min 0 min 0 W/m 19,3 km/h (3 Bft) 100,00 %
09.12.2018 04:20 7,9 C 6,7 C 6,1 C 92 % 993,5 hPa 0,0 l/m 0 min 0 min 0 W/m 22,5 km/h (4 Bft) 100,00 %
09.12.2018 04:22 7,9 C 6,7 C 6,1 C 92 % 993,6 hPa 0,0 l/m 0 min 2 min 0 W/m 22,5 km/h (4 Bft) 100,00 %
09.12.2018 04:24 7,9 C 6,7 C 6,1 C 92 % 993,6 hPa 0,0 l/m 0 min 2 min 0 W/m 25,7 km/h (4 Bft) 100,00 %
09.12.2018 04:26 8,0 C 6,7 C 6,1 C 92 % 993,5 hPa 0,2 l/m 0 min 2 min 0 W/m 35,4 km/h (5 Bft) 97,87 %
09.12.2018 04:28 7,9 C 6,1 C 6,1 C 92 % 993,5 hPa 0,0 l/m 0 min 2 min 0 W/m 41,8 km/h (6 Bft) 97,87 %
09.12.2018 04:30 7,9 C 6,1 C 6,1 C 92 % 993,6 hPa 0,0 l/m 0 min 2 min 0 W/m 35,4 km/h (5 Bft) 97,87 %
09.12.2018 04:32 7,9 C 6,1 C 5,6 C 92 % 993,3 hPa 0,0 l/m 0 min 2 min 0 W/m 32,2 km/h (5 Bft) 97,87 %
09.12.2018 04:34 7,9 C 6,1 C 5,6 C 92 % 993,4 hPa 0,0 l/m 0 min 2 min 0 W/m 16,1 km/h (3 Bft) 97,83 %
09.12.2018 04:36 7,9 C 6,1 C 5,6 C 92 % 993,5 hPa 0,0 l/m 0 min 2 min 0 W/m 16,1 km/h (3 Bft) 97,87 %
09.12.2018 04:38 7,8 C 6,1 C 5,6 C 92 % 993,5 hPa 0,0 l/m 0 min 2 min 0 W/m 16,1 km/h (3 Bft) 97,87 %
09.12.2018 04:40 7,8 C 6,1 C 5,6 C 92 % 993,4 hPa 0,0 l/m 0 min 2 min 0 W/m 29,0 km/h (5 Bft) 95,74 %
09.12.2018 04:42 7,8 C 6,1 C 5,6 C 92 % 993,6 hPa 0,0 l/m 0 min 2 min 0 W/m 19,3 km/h (3 Bft) 97,87 %
09.12.2018 04:44 7,8 C 6,1 C 5,6 C 92 % 993,4 hPa 0,0 l/m 0 min 2 min 0 W/m 29,0 km/h (5 Bft) 95,74 %
09.12.2018 04:46 7,7 C 6,1 C 5,6 C 92 % 993,5 hPa 0,0 l/m 0 min 2 min 0 W/m 16,1 km/h (3 Bft) 93,48 %
09.12.2018 04:48 7,7 C 6,1 C 5,6 C 92 % 993,7 hPa 0,0 l/m 0 min 2 min 0 W/m 22,5 km/h (4 Bft) 97,87 %
09.12.2018 04:50 7,7 C 6,1 C 5,6 C 92 % 993,4 hPa 0,0 l/m 0 min 2 min 0 W/m 22,5 km/h (4 Bft) 97,87 %
09.12.2018 04:52 7,7 C 6,1 C 5,6 C 92 % 993,4 hPa 0,0 l/m 0 min 2 min 0 W/m 19,3 km/h (3 Bft) 97,87 %
09.12.2018 04:54 7,7 C 6,1 C 5,6 C 92 % 993,5 hPa 0,0 l/m 0 min 2 min 0 W/m 22,5 km/h (4 Bft) 97,87 %
09.12.2018 04:56 7,6 C 6,1 C 5,6 C 92 % 993,5 hPa 0,0 l/m 0 min 2 min 0 W/m 25,7 km/h (4 Bft) 97,87 %
09.12.2018 04:58 7,6 C 6,1 C 5,6 C 92 % 993,6 hPa 0,0 l/m 0 min 2 min 0 W/m 19,3 km/h (3 Bft) 97,83 %
09.12.2018 05:00 7,6 C 6,1 C 5,6 C 92 % 993,5 hPa 0,0 l/m 0 min 2 min 0 W/m 19,3 km/h (3 Bft) 97,92 %
09.12.2018 05:02 7,5 C 6,1 C 5,6 C 92 % 993,6 hPa 0,0 l/m 0 min 2 min 0 W/m 22,5 km/h (4 Bft) 97,83 %
09.12.2018 05:04 7,5 C 6,1 C 5,6 C 92 % 993,6 hPa 0,0 l/m 0 min 2 min 0 W/m 12,9 km/h (3 Bft) 97,87 %
09.12.2018 05:06 7,4 C 6,1 C 5,6 C 93 % 993,6 hPa 0,0 l/m 0 min 2 min 0 W/m 32,2 km/h (5 Bft) 97,87 %
09.12.2018 05:08 7,4 C 6,1 C 5,6 C 93 % 993,6 hPa 0,0 l/m 0 min 2 min 0 W/m 25,7 km/h (4 Bft) 97,87 %
09.12.2018 05:10 7,4 C 6,1 C 5,6 C 93 % 993,8 hPa 0,0 l/m 0 min 2 min 0 W/m 29,0 km/h (5 Bft) 97,06 %
09.12.2018 05:12 7,4 C 6,1 C 5,6 C 93 % 993,7 hPa 0,0 l/m 0 min 2 min 0 W/m 25,7 km/h (4 Bft) 98,28 %
09.12.2018 05:14 7,4 C 6,1 C 5,6 C 93 % 993,6 hPa 0,0 l/m 0 min 2 min 0 W/m 19,3 km/h (3 Bft) 100,00 %
09.12.2018 05:16 7,4 C 6,1 C 5,6 C 93 % 993,7 hPa 0,0 l/m 0 min 2 min 0 W/m 16,1 km/h (3 Bft) 100,00 %
09.12.2018 05:18 7,4 C 6,1 C 5,6 C 93 % 993,6 hPa 0,2 l/m 0 min 2 min 0 W/m 32,2 km/h (5 Bft) 100,00 %
09.12.2018 05:20 7,4 C 6,1 C 5,6 C 93 % 993,7 hPa 0,0 l/m 0 min 2 min 0 W/m 22,5 km/h (4 Bft) 95,83 %
09.12.2018 05:22 7,4 C 6,1 C 5,6 C 93 % 993,7 hPa 0,0 l/m 0 min 2 min 0 W/m 25,7 km/h (4 Bft) 93,75 %
09.12.2018 05:24 7,4 C 6,1 C 5,6 C 93 % 993,8 hPa 0,0 l/m 0 min 0 min 0 W/m 29,0 km/h (5 Bft) 97,87 %
09.12.2018 05:26 7,4 C 6,1 C 5,6 C 93 % 993,7 hPa 0,0 l/m 0 min 2 min 0 W/m 35,4 km/h (5 Bft) 97,87 %
09.12.2018 05:28 7,4 C 6,1 C 5,6 C 93 % 993,7 hPa 0,0 l/m 0 min 2 min 0 W/m 25,7 km/h (4 Bft) 97,87 %
09.12.2018 05:30 7,4 C 6,1 C 5,6 C 93 % 993,7 hPa 0,0 l/m 0 min 2 min 0 W/m 29,0 km/h (5 Bft) 100,00 %
09.12.2018 05:32 7,4 C 6,1 C 5,6 C 93 % 993,7 hPa 0,0 l/m 0 min 2 min 0 W/m 29,0 km/h (5 Bft) 97,83 %
09.12.2018 05:34 7,4 C 6,1 C 5,6 C 93 % 993,8 hPa 0,0 l/m 0 min 2 min 0 W/m 22,5 km/h (4 Bft) 97,87 %
09.12.2018 05:36 7,4 C 6,1 C 5,6 C 93 % 993,9 hPa 0,0 l/m 0 min 2 min 0 W/m 22,5 km/h (4 Bft) 97,87 %
09.12.2018 05:38 7,4 C 6,1 C 5,6 C 93 % 993,9 hPa 0,0 l/m 0 min 2 min 0 W/m 22,5 km/h (4 Bft) 97,62 %
09.12.2018 05:40 7,4 C 6,1 C 5,6 C 93 % 993,9 hPa 0,0 l/m 0 min 2 min 0 W/m 38,6 km/h (5 Bft) 95,83 %
09.12.2018 05:42 7,4 C 6,1 C 5,6 C 94 % 994,0 hPa 0,0 l/m 0 min 2 min 0 W/m 32,2 km/h (5 Bft) 97,87 %
09.12.2018 05:44 7,4 C 6,1 C 5,6 C 94 % 994,0 hPa 0,0 l/m 0 min 2 min 0 W/m 22,5 km/h (4 Bft) 97,87 %
09.12.2018 05:46 7,4 C 6,1 C 5,6 C 94 % 994,0 hPa 0,0 l/m 0 min 2 min 0 W/m 19,3 km/h (3 Bft) 97,96 %
09.12.2018 05:48 7,4 C 6,1 C 5,6 C 94 % 994,1 hPa 0,0 l/m 0 min 2 min 0 W/m 35,4 km/h (5 Bft) 97,87 %
09.12.2018 05:50 7,4 C 6,1 C 5,6 C 94 % 994,0 hPa 0,0 l/m 0 min 2 min 0 W/m 38,6 km/h (5 Bft) 97,92 %
09.12.2018 05:52 7,4 C 6,1 C 5,6 C 94 % 993,9 hPa 0,0 l/m 0 min 2 min 0 W/m 32,2 km/h (5 Bft) 97,87 %
09.12.2018 05:54 7,4 C 6,1 C 5,6 C 94 % 994,0 hPa 0,0 l/m 0 min 2 min 0 W/m 19,3 km/h (3 Bft) 97,87 %
09.12.2018 05:56 7,4 C 6,1 C 5,6 C 94 % 994,1 hPa 0,0 l/m 0 min 2 min 0 W/m 25,7 km/h (4 Bft) 97,62 %
09.12.2018 05:58 7,4 C 6,1 C 5,6 C 94 % 994,1 hPa 0,0 l/m 0 min 2 min 0 W/m 19,3 km/h (3 Bft) 97,87 %
09.12.2018 06:00 7,4 C 6,1 C 5,6 C 94 % 994,0 hPa 0,0 l/m 0 min 2 min 0 W/m 32,2 km/h (5 Bft) 97,87 %
09.12.2018 06:02 7,4 C 6,1 C 5,6 C 94 % 994,1 hPa 0,0 l/m 0 min 2 min 0 W/m 25,7 km/h (4 Bft) 97,96 %
09.12.2018 06:04 7,4 C 6,1 C 5,6 C 94 % 994,0 hPa 0,0 l/m 0 min 2 min 0 W/m 25,7 km/h (4 Bft) 97,87 %
09.12.2018 06:08 7,5 C 6,1 C 5,6 C 94 % 994,0 hPa 0,0 l/m 0 min 4 min 0 W/m 29,0 km/h (5 Bft) 100,00 %
09.12.2018 06:10 7,5 C 6,1 C 5,6 C 93 % 993,9 hPa 0,0 l/m 0 min 2 min 0 W/m 19,3 km/h (3 Bft) 100,00 %
09.12.2018 06:12 7,5 C 6,7 C 5,6 C 93 % 994,0 hPa 0,0 l/m 0 min 2 min 0 W/m 16,1 km/h (3 Bft) 97,87 %
09.12.2018 06:14 7,6 C 6,7 C 6,1 C 93 % 994,1 hPa 0,0 l/m 0 min 2 min 0 W/m 25,7 km/h (4 Bft) 100,00 %
09.12.2018 06:16 7,6 C 6,7 C 6,1 C 93 % 994,2 hPa 0,0 l/m 0 min 2 min 0 W/m 35,4 km/h (5 Bft) 100,00 %
09.12.2018 06:18 7,6 C 6,7 C 6,1 C 94 % 994,3 hPa 0,0 l/m 0 min 2 min 0 W/m 32,2 km/h (5 Bft) 100,00 %
09.12.2018 06:20 7,6 C 6,7 C 6,1 C 94 % 994,3 hPa 0,0 l/m 0 min 2 min 0 W/m 22,5 km/h (4 Bft) 95,92 %
09.12.2018 06:22 7,6 C 6,7 C 6,1 C 94 % 994,2 hPa 0,0 l/m 0 min 2 min 0 W/m 19,3 km/h (3 Bft) 95,74 %
09.12.2018 06:24 7,6 C 6,7 C 6,1 C 94 % 994,3 hPa 0,0 l/m 0 min 2 min 0 W/m 19,3 km/h (3 Bft) 97,83 %
09.12.2018 06:26 7,6 C 6,1 C 6,1 C 93 % 994,2 hPa 0,0 l/m 0 min 2 min 0 W/m 16,1 km/h (3 Bft) 97,87 %
09.12.2018 06:28 7,6 C 6,1 C 6,1 C 93 % 994,3 hPa 0,0 l/m 0 min 2 min 0 W/m 29,0 km/h (5 Bft) 97,87 %
09.12.2018 06:30 7,6 C 6,1 C 6,1 C 93 % 994,3 hPa 0,0 l/m 0 min 2 min 0 W/m 22,5 km/h (4 Bft) 97,87 %
09.12.2018 06:32 7,6 C 6,1 C 6,1 C 93 % 994,3 hPa 0,0 l/m 0 min 2 min 0 W/m 16,1 km/h (3 Bft) 97,87 %
09.12.2018 06:34 7,6 C 6,1 C 6,1 C 93 % 994,4 hPa 0,0 l/m 0 min 2 min 0 W/m 25,7 km/h (4 Bft) 97,96 %
09.12.2018 06:36 7,6 C 6,1 C 6,1 C 93 % 994,6 hPa 0,0 l/m 0 min 2 min 0 W/m 25,7 km/h (4 Bft) 97,83 %
09.12.2018 06:38 7,6 C 6,1 C 6,1 C 93 % 994,4 hPa 0,0 l/m 0 min 2 min 0 W/m 25,7 km/h (4 Bft) 97,87 %
09.12.2018 06:40 7,6 C 6,1 C 5,6 C 93 % 994,4 hPa 0,0 l/m 0 min 2 min 0 W/m 19,3 km/h (3 Bft) 97,92 %
09.12.2018 06:42 7,6 C 6,1 C 5,6 C 93 % 994,6 hPa 0,0 l/m 0 min 2 min 0 W/m 22,5 km/h (4 Bft) 95,65 %
09.12.2018 06:44 7,6 C 6,1 C 5,6 C 93 % 994,4 hPa 0,0 l/m 0 min 2 min 0 W/m 19,3 km/h (3 Bft) 95,74 %
09.12.2018 06:46 7,6 C 6,1 C 5,6 C 93 % 994,5 hPa 0,2 l/m 0 min 2 min 0 W/m 22,5 km/h (4 Bft) 97,87 %
09.12.2018 06:48 7,6 C 6,1 C 5,6 C 93 % 994,5 hPa 0,0 l/m 0 min 2 min 0 W/m 22,5 km/h (4 Bft) 97,87 %
09.12.2018 06:50 7,6 C 6,1 C 5,6 C 93 % 994,6 hPa 0,2 l/m 0 min 2 min 0 W/m 29,0 km/h (5 Bft) 97,62 %
09.12.2018 06:52 7,6 C 6,1 C 5,6 C 94 % 994,7 hPa 0,0 l/m 0 min 2 min 0 W/m 38,6 km/h (5 Bft) 97,87 %
09.12.2018 06:54 7,6 C 6,1 C 5,6 C 93 % 994,7 hPa 0,0 l/m 0 min 2 min 0 W/m 25,7 km/h (4 Bft) 95,74 %
09.12.2018 06:56 7,6 C 6,1 C 5,6 C 94 % 994,7 hPa 0,0 l/m 0 min 2 min 0 W/m 32,2 km/h (5 Bft) 95,92 %
09.12.2018 06:58 7,6 C 6,1 C 5,6 C 94 % 994,7 hPa 0,0 l/m 0 min 2 min 0 W/m 32,2 km/h (5 Bft) 95,92 %
09.12.2018 07:00 7,6 C 6,1 C 5,6 C 94 % 994,7 hPa 0,2 l/m 0 min 2 min 0 W/m 25,7 km/h (4 Bft) 91,49 %
09.12.2018 07:02 7,6 C 6,1 C 5,6 C 94 % 994,7 hPa 0,0 l/m 0 min 2 min 0 W/m 19,3 km/h (3 Bft) 95,74 %
09.12.2018 07:04 7,6 C 6,1 C 5,6 C 94 % 994,7 hPa 0,0 l/m 0 min 2 min 0 W/m 19,3 km/h (3 Bft) 93,62 %
09.12.2018 07:06 7,5 C 6,1 C 5,6 C 94 % 994,7 hPa 0,0 l/m 0 min 2 min 0 W/m 19,3 km/h (3 Bft) 91,30 %
09.12.2018 07:08 7,5 C 6,1 C 5,6 C 94 % 994,7 hPa 0,2 l/m 0 min 2 min 0 W/m 16,1 km/h (3 Bft) 95,74 %
09.12.2018 07:10 7,5 C 6,1 C 5,6 C 94 % 994,6 hPa 0,0 l/m 0 min 2 min 0 W/m 16,1 km/h (3 Bft) 95,74 %
09.12.2018 07:12 7,5 C 6,1 C 5,6 C 94 % 994,7 hPa 0,0 l/m 0 min 2 min 0 W/m 12,9 km/h (3 Bft) 95,35 %
09.12.2018 07:14 7,5 C 6,1 C 5,6 C 94 % 994,8 hPa 0,0 l/m 0 min 2 min 0 W/m 19,3 km/h (3 Bft) 95,92 %
09.12.2018 07:16 7,5 C 6,1 C 5,6 C 94 % 994,8 hPa 0,2 l/m 0 min 2 min 0 W/m 16,1 km/h (3 Bft) 93,62 %
09.12.2018 07:18 7,4 C 6,1 C 5,6 C 94 % 994,8 hPa 0,2 l/m 0 min 2 min 0 W/m 22,5 km/h (4 Bft) 95,83 %
09.12.2018 07:20 7,4 C 6,1 C 5,6 C 95 % 995,0 hPa 0,0 l/m 0 min 2 min 0 W/m 25,7 km/h (4 Bft) 95,74 %
09.12.2018 07:22 7,4 C 6,1 C 5,6 C 95 % 994,9 hPa 0,0 l/m 0 min 0 min 0 W/m 16,1 km/h (3 Bft) 95,74 %
09.12.2018 07:24 7,4 C 6,1 C 5,6 C 95 % 994,9 hPa 0,0 l/m 0 min 0 min 0 W/m 32,2 km/h (5 Bft) 97,62 %
09.12.2018 07:26 7,4 C 6,1 C 5,6 C 95 % 995,0 hPa 0,0 l/m 0 min 0 min 0 W/m 12,9 km/h (3 Bft) 91,49 %
09.12.2018 07:28 7,4 C 6,7 C 5,6 C 95 % 995,0 hPa 0,0 l/m 0 min 0 min 0 W/m 22,5 km/h (4 Bft) 95,92 %
09.12.2018 07:30 7,4 C 6,7 C 5,6 C 95 % 994,9 hPa 0,0 l/m 0 min 0 min 0 W/m 16,1 km/h (3 Bft) 95,74 %
09.12.2018 07:32 7,4 C 6,7 C 5,6 C 95 % 995,0 hPa 0,0 l/m 0 min 0 min 0 W/m 35,4 km/h (5 Bft) 95,92 %
09.12.2018 07:34 7,4 C 6,7 C 6,1 C 95 % 994,9 hPa 0,0 l/m 0 min 0 min 0 W/m 16,1 km/h (3 Bft) 95,74 %
09.12.2018 07:36 7,4 C 6,7 C 6,1 C 95 % 995,0 hPa 0,0 l/m 0 min 0 min 0 W/m 16,1 km/h (3 Bft) 97,87 %
09.12.2018 07:38 7,4 C 6,7 C 6,1 C 95 % 995,0 hPa 0,0 l/m 0 min 0 min 0 W/m 22,5 km/h (4 Bft) 97,87 %
09.12.2018 07:40 7,4 C 6,7 C 6,1 C 95 % 995,0 hPa 0,0 l/m 0 min 0 min 0 W/m 19,3 km/h (3 Bft) 100,00 %
09.12.2018 07:42 7,4 C 6,7 C 6,1 C 95 % 994,9 hPa 0,0 l/m 0 min 0 min 0 W/m 22,5 km/h (4 Bft) 100,00 %
09.12.2018 07:44 7,4 C 6,7 C 6,1 C 95 % 995,1 hPa 0,0 l/m 0 min 0 min 0 W/m 35,4 km/h (5 Bft) 100,00 %
09.12.2018 07:46 7,5 C 6,7 C 6,1 C 95 % 995,1 hPa 0,0 l/m 0 min 0 min 0 W/m 22,5 km/h (4 Bft) 97,92 %
09.12.2018 07:48 7,5 C 6,7 C 6,1 C 95 % 995,0 hPa 0,0 l/m 0 min 0 min 0 W/m 16,1 km/h (3 Bft) 97,87 %
09.12.2018 07:50 7,5 C 6,7 C 6,1 C 95 % 994,9 hPa 0,0 l/m 0 min 0 min 0 W/m 29,0 km/h (5 Bft) 100,00 %
09.12.2018 07:52 7,5 C 6,7 C 6,1 C 95 % 994,9 hPa 0,0 l/m 0 min 0 min 0 W/m 38,6 km/h (5 Bft) 100,00 %
09.12.2018 07:54 7,5 C 6,7 C 6,1 C 95 % 995,1 hPa 0,0 l/m 0 min 0 min 0 W/m 22,5 km/h (4 Bft) 100,00 %
09.12.2018 07:56 7,5 C 6,7 C 6,1 C 95 % 995,1 hPa 0,0 l/m 0 min 0 min 0 W/m 22,5 km/h (4 Bft) 100,00 %
09.12.2018 07:58 7,5 C 6,7 C 5,6 C 95 % 995,1 hPa 0,0 l/m 0 min 0 min 0 W/m 35,4 km/h (5 Bft) 97,67 %
09.12.2018 08:00 7,5 C 6,7 C 6,1 C 95 % 995,1 hPa 0,0 l/m 0 min 0 min 0 W/m 25,7 km/h (4 Bft) 100,00 %
09.12.2018 08:02 7,5 C 6,7 C 6,1 C 95 % 995,1 hPa 0,0 l/m 0 min 0 min 0 W/m 35,4 km/h (5 Bft) 100,00 %
09.12.2018 08:04 7,5 C 6,7 C 6,1 C 94 % 995,1 hPa 0,0 l/m 0 min 0 min 0 W/m 29,0 km/h (5 Bft) 100,00 %
09.12.2018 08:06 7,5 C 6,7 C 6,1 C 94 % 995,2 hPa 0,0 l/m 0 min 0 min 0 W/m 16,1 km/h (3 Bft) 100,00 %
09.12.2018 08:08 7,5 C 6,7 C 6,1 C 94 % 995,2 hPa 0,0 l/m 0 min 0 min 0 W/m 19,3 km/h (3 Bft) 97,87 %
09.12.2018 08:10 7,5 C 6,7 C 6,1 C 94 % 995,2 hPa 0,0 l/m 0 min 0 min 0 W/m 25,7 km/h (4 Bft) 97,92 %
09.12.2018 08:12 7,5 C 6,7 C 5,6 C 94 % 995,2 hPa 0,0 l/m 0 min 0 min 0 W/m 29,0 km/h (5 Bft) 97,87 %
09.12.2018 08:14 7,6 C 6,7 C 6,1 C 94 % 995,3 hPa 0,0 l/m 0 min 0 min 0 W/m 29,0 km/h (5 Bft) 95,92 %
09.12.2018 08:16 7,6 C 6,7 C 5,6 C 94 % 995,4 hPa 0,0 l/m 0 min 0 min 0 W/m 32,2 km/h (5 Bft) 97,87 %
09.12.2018 08:18 7,6 C 6,7 C 6,1 C 94 % 995,3 hPa 0,0 l/m 0 min 0 min 0 W/m 25,7 km/h (4 Bft) 97,87 %
09.12.2018 08:20 7,6 C 6,7 C 6,1 C 94 % 995,4 hPa 0,0 l/m 0 min 0 min 0 W/m 25,7 km/h (4 Bft) 97,87 %
09.12.2018 08:22 7,6 C 6,7 C 6,1 C 94 % 995,3 hPa 0,0 l/m 0 min 0 min 0 W/m 19,3 km/h (3 Bft) 97,67 %
09.12.2018 08:24 7,6 C 6,7 C 6,1 C 94 % 995,3 hPa 0,0 l/m 0 min 0 min 0 W/m 19,3 km/h (3 Bft) 97,96 %
09.12.2018 08:26 7,6 C 6,7 C 6,1 C 93 % 995,5 hPa 0,0 l/m 0 min 0 min 0 W/m 25,7 km/h (4 Bft) 97,92 %
09.12.2018 08:28 7,6 C 6,7 C 6,1 C 93 % 995,5 hPa 0,0 l/m 0 min 0 min 0 W/m 29,0 km/h (5 Bft) 97,87 %
09.12.2018 08:30 7,6 C 6,7 C 6,1 C 93 % 995,5 hPa 0,0 l/m 0 min 0 min 0 W/m 22,5 km/h (4 Bft) 97,87 %
09.12.2018 08:32 7,7 C 6,7 C 6,1 C 93 % 995,5 hPa 0,0 l/m 0 min 0 min 2 W/m 19,3 km/h (3 Bft) 90,48 %
09.12.2018 08:34 7,7 C 6,7 C 6,1 C 93 % 995,4 hPa 0,0 l/m 0 min 0 min 6 W/m 35,4 km/h (5 Bft) 93,88 %
09.12.2018 08:36 7,7 C 6,7 C 6,1 C 93 % 995,5 hPa 0,0 l/m 0 min 0 min 8 W/m 22,5 km/h (4 Bft) 97,96 %
09.12.2018 08:38 7,7 C 6,7 C 6,1 C 93 % 995,6 hPa 0,0 l/m 0 min 0 min 9 W/m 19,3 km/h (3 Bft) 97,87 %
09.12.2018 08:40 7,7 C 6,7 C 6,1 C 93 % 995,4 hPa 0,0 l/m 0 min 0 min 10 W/m 19,3 km/h (3 Bft) 97,87 %
09.12.2018 08:42 7,7 C 6,7 C 6,1 C 93 % 995,5 hPa 0,0 l/m 0 min 0 min 11 W/m 16,1 km/h (3 Bft) 97,87 %
09.12.2018 08:44 7,7 C 6,7 C 6,1 C 92 % 995,6 hPa 0,0 l/m 0 min 0 min 12 W/m 16,1 km/h (3 Bft) 97,56 %
09.12.2018 08:46 7,7 C 6,7 C 6,1 C 92 % 995,6 hPa 0,0 l/m 0 min 0 min 14 W/m 25,7 km/h (4 Bft) 97,96 %
09.12.2018 08:48 7,7 C 6,7 C 6,1 C 92 % 995,6 hPa 0,0 l/m 0 min 0 min 17 W/m 25,7 km/h (4 Bft) 97,96 %
09.12.2018 08:50 7,7 C 6,7 C 6,1 C 92 % 995,8 hPa 0,0 l/m 0 min 0 min 18 W/m 22,5 km/h (4 Bft) 95,83 %
09.12.2018 08:52 7,7 C 6,7 C 6,1 C 92 % 995,8 hPa 0,0 l/m 0 min 0 min 18 W/m 22,5 km/h (4 Bft) 97,87 %
09.12.2018 08:54 7,8 C 6,7 C 6,1 C 92 % 995,8 hPa 0,0 l/m 0 min 0 min 18 W/m 16,1 km/h (3 Bft) 97,87 %
09.12.2018 08:56 7,8 C 6,7 C 6,1 C 92 % 995,8 hPa 0,0 l/m 0 min 0 min 20 W/m 12,9 km/h (3 Bft) 100,00 %
09.12.2018 08:58 7,8 C 6,7 C 6,1 C 91 % 995,8 hPa 0,0 l/m 0 min 0 min 21 W/m 35,4 km/h (5 Bft) 100,00 %
09.12.2018 09:00 7,8 C 6,7 C 6,1 C 91 % 995,9 hPa 0,0 l/m 0 min 0 min 24 W/m 16,1 km/h (3 Bft) 97,87 %
09.12.2018 09:02 7,8 C 6,7 C 6,1 C 91 % 996,1 hPa 0,0 l/m 0 min 0 min 26 W/m 25,7 km/h (4 Bft) 97,92 %
09.12.2018 09:04 7,8 C 6,7 C 6,1 C 91 % 996,0 hPa 0,0 l/m 0 min 0 min 28 W/m 16,1 km/h (3 Bft) 97,87 %
09.12.2018 09:06 7,8 C 6,7 C 6,1 C 91 % 996,0 hPa 0,0 l/m 0 min 0 min 28 W/m 22,5 km/h (4 Bft) 100,00 %
09.12.2018 09:08 7,8 C 6,7 C 6,1 C 91 % 996,0 hPa 0,0 l/m 0 min 0 min 28 W/m 19,3 km/h (3 Bft) 95,74 %
09.12.2018 09:10 7,8 C 6,7 C 6,1 C 91 % 996,0 hPa 0,0 l/m 0 min 0 min 28 W/m 22,5 km/h (4 Bft) 100,00 %
09.12.2018 09:12 7,9 C 6,7 C 6,1 C 91 % 996,1 hPa 0,0 l/m 0 min 0 min 28 W/m 19,3 km/h (3 Bft) 95,24 %
09.12.2018 09:14 7,9 C 6,7 C 6,1 C 91 % 996,0 hPa 0,0 l/m 0 min 0 min 32 W/m 16,1 km/h (3 Bft) 97,96 %
09.12.2018 09:16 7,9 C 6,7 C 6,1 C 91 % 996,1 hPa 0,0 l/m 0 min 0 min 31 W/m 19,3 km/h (3 Bft) 97,92 %
09.12.2018 09:18 7,9 C 6,7 C 6,1 C 91 % 996,1 hPa 0,0 l/m 0 min 0 min 31 W/m 16,1 km/h (3 Bft) 100,00 %
09.12.2018 09:20 7,9 C 7,2 C 6,1 C 91 % 996,1 hPa 0,0 l/m 0 min 0 min 35 W/m 16,1 km/h (3 Bft) 95,74 %
09.12.2018 09:22 7,9 C 7,2 C 6,1 C 91 % 996,2 hPa 0,0 l/m 0 min 0 min 31 W/m 22,5 km/h (4 Bft) 97,62 %
09.12.2018 09:24 7,9 C 7,2 C 6,1 C 91 % 996,2 hPa 0,0 l/m 0 min 0 min 28 W/m 22,5 km/h (4 Bft) 100,00 %
09.12.2018 09:26 8,0 C 7,2 C 6,7 C 91 % 996,2 hPa 0,0 l/m 0 min 0 min 25 W/m 25,7 km/h (4 Bft) 100,00 %
09.12.2018 09:28 8,0 C 7,2 C 6,7 C 91 % 996,3 hPa 0,0 l/m 0 min 0 min 23 W/m 25,7 km/h (4 Bft) 97,87 %
09.12.2018 09:30 8,0 C 7,2 C 6,7 C 91 % 996,4 hPa 0,0 l/m 0 min 0 min 23 W/m 19,3 km/h (3 Bft) 97,87 %
09.12.2018 09:32 8,0 C 7,2 C 6,7 C 91 % 996,4 hPa 0,0 l/m 0 min 0 min 24 W/m 22,5 km/h (4 Bft) 95,83 %
09.12.2018 09:34 8,1 C 7,2 C 6,7 C 91 % 996,3 hPa 0,0 l/m 0 min 0 min 26 W/m 22,5 km/h (4 Bft) 95,24 %
09.12.2018 09:36 8,1 C 7,2 C 6,7 C 91 % 996,5 hPa 0,0 l/m 0 min 0 min 26 W/m 16,1 km/h (3 Bft) 95,92 %
09.12.2018 09:38 8,1 C 7,2 C 6,7 C 90 % 996,5 hPa 0,0 l/m 0 min 0 min 26 W/m 35,4 km/h (5 Bft) 97,96 %
09.12.2018 09:40 8,1 C 7,2 C 6,7 C 90 % 996,5 hPa 0,0 l/m 0 min 0 min 30 W/m 25,7 km/h (4 Bft) 97,87 %
09.12.2018 09:42 8,1 C 7,2 C 6,7 C 90 % 996,5 hPa 0,0 l/m 0 min 0 min 33 W/m 29,0 km/h (5 Bft) 97,87 %
09.12.2018 09:44 8,2 C 7,2 C 6,7 C 90 % 996,5 hPa 0,0 l/m 0 min 0 min 30 W/m 19,3 km/h (3 Bft) 97,87 %
09.12.2018 09:46 8,2 C 7,2 C 6,7 C 90 % 996,6 hPa 0,0 l/m 0 min 0 min 20 W/m 48,3 km/h (6 Bft) 95,74 %
09.12.2018 09:48 8,2 C 7,2 C 6,7 C 90 % 996,6 hPa 0,0 l/m 0 min 0 min 19 W/m 29,0 km/h (5 Bft) 97,62 %
09.12.2018 09:50 8,2 C 7,2 C 6,7 C 90 % 996,6 hPa 0,0 l/m 0 min 2 min 19 W/m 19,3 km/h (3 Bft) 95,92 %
09.12.2018 09:52 8,2 C 7,2 C 6,7 C 90 % 996,5 hPa 0,0 l/m 0 min 2 min 27 W/m 22,5 km/h (4 Bft) 97,96 %
09.12.2018 09:54 8,2 C 7,2 C 6,7 C 90 % 996,6 hPa 0,0 l/m 0 min 2 min 33 W/m 22,5 km/h (4 Bft) 97,87 %
09.12.2018 09:56 8,2 C 7,2 C 6,7 C 90 % 996,7 hPa 0,0 l/m 0 min 2 min 48 W/m 19,3 km/h (3 Bft) 97,87 %
09.12.2018 09:58 8,3 C 7,2 C 6,7 C 90 % 996,6 hPa 0,0 l/m 0 min 2 min 42 W/m 19,3 km/h (3 Bft) 97,62 %
09.12.2018 10:00 8,3 C 7,2 C 6,7 C 90 % 996,6 hPa 0,0 l/m 0 min 2 min 33 W/m 22,5 km/h (4 Bft) 95,74 %
09.12.2018 10:02 8,3 C 7,8 C 6,7 C 90 % 996,7 hPa 0,0 l/m 0 min 2 min 31 W/m 29,0 km/h (5 Bft) 96,00 %
09.12.2018 10:04 8,3 C 7,8 C 6,7 C 90 % 996,7 hPa 0,0 l/m 0 min 2 min 37 W/m 19,3 km/h (3 Bft) 97,87 %
09.12.2018 10:06 8,3 C 7,8 C 6,7 C 90 % 996,8 hPa 0,0 l/m 0 min 2 min 40 W/m 12,9 km/h (3 Bft) 95,83 %
09.12.2018 10:08 8,3 C 7,8 C 6,7 C 90 % 996,7 hPa 0,0 l/m 0 min 0 min 25 W/m 19,3 km/h (3 Bft) 95,74 %
09.12.2018 10:10 8,3 C 7,8 C 6,7 C 90 % 996,7 hPa 0,0 l/m 0 min 0 min 26 W/m 22,5 km/h (4 Bft) 93,62 %
09.12.2018 10:12 8,3 C 7,8 C 6,7 C 90 % 996,7 hPa 0,0 l/m 0 min 2 min 27 W/m 12,9 km/h (3 Bft) 95,65 %
09.12.2018 10:14 8,3 C 7,8 C 6,7 C 90 % 996,7 hPa 0,0 l/m 0 min 2 min 30 W/m 16,1 km/h (3 Bft) 97,62 %
09.12.2018 10:16 8,3 C 7,8 C 6,7 C 90 % 996,7 hPa 0,0 l/m 0 min 2 min 32 W/m 12,9 km/h (3 Bft) 95,92 %
09.12.2018 10:18 8,3 C 7,8 C 6,7 C 90 % 996,8 hPa 0,0 l/m 0 min 2 min 26 W/m 29,0 km/h (5 Bft) 97,92 %
09.12.2018 10:20 8,3 C 7,8 C 6,7 C 90 % 996,8 hPa 0,0 l/m 0 min 2 min 31 W/m 16,1 km/h (3 Bft) 97,96 %
09.12.2018 10:22 8,3 C 7,8 C 6,7 C 90 % 996,9 hPa 0,0 l/m 0 min 2 min 37 W/m 12,9 km/h (3 Bft) 97,87 %
09.12.2018 10:24 8,3 C 7,8 C 6,7 C 90 % 996,8 hPa 0,0 l/m 0 min 2 min 36 W/m 12,9 km/h (3 Bft) 97,83 %
09.12.2018 10:26 8,3 C 7,8 C 6,7 C 90 % 996,9 hPa 0,0 l/m 0 min 2 min 38 W/m 12,9 km/h (3 Bft) 97,87 %
09.12.2018 10:28 8,3 C 7,8 C 6,7 C 90 % 996,9 hPa 0,0 l/m 0 min 2 min 51 W/m 19,3 km/h (3 Bft) 97,67 %
09.12.2018 10:30 8,3 C 7,8 C 6,7 C 90 % 997,0 hPa 0,0 l/m 0 min 2 min 61 W/m 16,1 km/h (3 Bft) 100,00 %
09.12.2018 10:32 8,3 C 7,8 C 6,7 C 90 % 997,0 hPa 0,0 l/m 0 min 2 min 63 W/m 12,9 km/h (3 Bft) 98,00 %
09.12.2018 10:34 8,3 C 7,8 C 6,7 C 90 % 997,0 hPa 0,0 l/m 0 min 2 min 34 W/m 29,0 km/h (5 Bft) 97,83 %
09.12.2018 10:36 8,3 C 7,8 C 6,7 C 90 % 996,9 hPa 0,0 l/m 0 min 2 min 30 W/m 25,7 km/h (4 Bft) 97,87 %
09.12.2018 10:38 8,3 C 7,8 C 6,7 C 90 % 996,9 hPa 0,0 l/m 0 min 2 min 27 W/m 19,3 km/h (3 Bft) 97,87 %
09.12.2018 10:40 8,3 C 7,2 C 6,7 C 90 % 997,0 hPa 0,0 l/m 0 min 2 min 21 W/m 25,7 km/h (4 Bft) 97,87 %
09.12.2018 10:42 8,3 C 7,2 C 6,7 C 90 % 997,0 hPa 0,0 l/m 0 min 2 min 22 W/m 12,9 km/h (3 Bft) 97,87 %
09.12.2018 10:44 8,3 C 7,2 C 6,7 C 90 % 996,9 hPa 0,0 l/m 0 min 2 min 19 W/m 19,3 km/h (3 Bft) 97,87 %
09.12.2018 10:46 8,3 C 7,2 C 6,1 C 90 % 997,0 hPa 0,0 l/m 0 min 2 min 13 W/m 25,7 km/h (4 Bft) 97,56 %
09.12.2018 10:48 8,3 C 7,2 C 6,1 C 90 % 997,0 hPa 0,0 l/m 0 min 2 min 14 W/m 19,3 km/h (3 Bft) 97,96 %
09.12.2018 10:50 8,3 C 6,7 C 6,1 C 90 % 997,1 hPa 0,2 l/m 0 min 2 min 17 W/m 22,5 km/h (4 Bft) 97,96 %
09.12.2018 10:52 8,3 C 6,7 C 6,1 C 90 % 997,1 hPa 0,0 l/m 0 min 2 min 23 W/m 19,3 km/h (3 Bft) 97,83 %
09.12.2018 10:54 8,3 C 6,7 C 6,1 C 90 % 997,2 hPa 0,0 l/m 0 min 2 min 27 W/m 25,7 km/h (4 Bft) 95,92 %
09.12.2018 10:56 8,3 C 6,7 C 6,1 C 91 % 997,1 hPa 0,2 l/m 0 min 2 min 30 W/m 12,9 km/h (3 Bft) 93,62 %
09.12.2018 10:58 8,2 C 6,7 C 6,1 C 91 % 997,2 hPa 0,0 l/m 0 min 2 min 34 W/m 12,9 km/h (3 Bft) 95,65 %
09.12.2018 11:00 8,2 C 6,7 C 6,1 C 91 % 997,2 hPa 0,0 l/m 0 min 2 min 38 W/m 19,3 km/h (3 Bft) 93,62 %
09.12.2018 11:02 8,2 C 6,7 C 6,1 C 91 % 997,2 hPa 0,0 l/m 0 min 2 min 35 W/m 16,1 km/h (3 Bft) 95,74 %
09.12.2018 11:04 8,2 C 6,7 C 6,1 C 91 % 997,3 hPa 0,0 l/m 0 min 2 min 33 W/m 25,7 km/h (4 Bft) 95,74 %
09.12.2018 11:06 8,2 C 6,7 C 6,1 C 91 % 997,1 hPa 0,0 l/m 0 min 2 min 31 W/m 19,3 km/h (3 Bft) 97,87 %
09.12.2018 11:08 8,2 C 6,7 C 6,1 C 92 % 997,1 hPa 0,2 l/m 0 min 2 min 31 W/m 16,1 km/h (3 Bft) 97,62 %
09.12.2018 11:10 8,1 C 6,7 C 6,1 C 92 % 997,2 hPa 0,0 l/m 0 min 2 min 29 W/m 12,9 km/h (3 Bft) 95,74 %
09.12.2018 11:12 8,1 C 6,7 C 6,1 C 92 % 997,2 hPa 0,0 l/m 0 min 2 min 27 W/m 16,1 km/h (3 Bft) 96,00 %
09.12.2018 11:14 8,1 C 6,7 C 6,1 C 92 % 997,2 hPa 0,0 l/m 0 min 2 min 30 W/m 16,1 km/h (3 Bft) 95,83 %
09.12.2018 11:16 8,1 C 6,7 C 6,1 C 92 % 997,4 hPa 0,2 l/m 0 min 2 min 27 W/m 16,1 km/h (3 Bft) 97,87 %
09.12.2018 11:18 8,1 C 6,7 C 6,1 C 93 % 997,3 hPa 0,0 l/m 0 min 2 min 24 W/m 16,1 km/h (3 Bft) 93,62 %
09.12.2018 11:20 8,1 C 6,7 C 6,1 C 92 % 997,2 hPa 0,0 l/m 0 min 2 min 20 W/m 22,5 km/h (4 Bft) 97,56 %
09.12.2018 11:22 8,1 C 6,7 C 6,1 C 93 % 997,2 hPa 0,0 l/m 0 min 0 min 14 W/m 22,5 km/h (4 Bft) 96,00 %
09.12.2018 11:24 8,1 C 6,7 C 6,1 C 93 % 997,3 hPa 0,0 l/m 0 min 0 min 16 W/m 22,5 km/h (4 Bft) 95,92 %
09.12.2018 11:26 8,0 C 6,7 C 6,1 C 93 % 997,4 hPa 0,0 l/m 0 min 0 min 27 W/m 9,7 km/h (2 Bft) 97,87 %
09.12.2018 11:28 8,1 C 6,7 C 6,1 C 93 % 997,6 hPa 0,0 l/m 0 min 0 min 33 W/m 12,9 km/h (3 Bft) 93,62 %
09.12.2018 11:30 8,0 C 6,7 C 6,1 C 93 % 997,6 hPa 0,0 l/m 0 min 0 min 31 W/m 22,5 km/h (4 Bft) 93,62 %
09.12.2018 11:32 8,0 C 6,7 C 6,1 C 93 % 997,5 hPa 0,0 l/m 0 min 0 min 32 W/m 16,1 km/h (3 Bft) 95,35 %
09.12.2018 11:34 8,0 C 6,7 C 6,7 C 93 % 997,4 hPa 0,0 l/m 0 min 0 min 39 W/m 16,1 km/h (3 Bft) 97,96 %
09.12.2018 11:36 8,0 C 7,2 C 6,7 C 94 % 997,4 hPa 0,0 l/m 0 min 0 min 38 W/m 16,1 km/h (3 Bft) 97,92 %
09.12.2018 11:38 8,0 C 7,2 C 6,7 C 94 % 997,4 hPa 0,0 l/m 0 min 0 min 37 W/m 25,7 km/h (4 Bft) 97,87 %
09.12.2018 11:40 8,0 C 7,2 C 6,7 C 94 % 997,4 hPa 0,0 l/m 0 min 0 min 42 W/m 19,3 km/h (3 Bft) 95,74 %
09.12.2018 11:42 7,9 C 7,2 C 6,7 C 94 % 997,3 hPa 0,0 l/m 0 min 0 min 51 W/m 16,1 km/h (3 Bft) 95,74 %
09.12.2018 11:44 8,0 C 7,2 C 6,7 C 94 % 997,5 hPa 0,0 l/m 0 min 0 min 56 W/m 12,9 km/h (3 Bft) 97,62 %
09.12.2018 11:46 8,0 C 7,2 C 6,7 C 94 % 997,4 hPa 0,0 l/m 0 min 0 min 47 W/m 22,5 km/h (4 Bft) 97,96 %
09.12.2018 11:48 8,0 C 7,2 C 6,7 C 94 % 997,5 hPa 0,0 l/m 0 min 0 min 38 W/m 19,3 km/h (3 Bft) 100,00 %
09.12.2018 11:50 8,0 C 7,2 C 6,7 C 94 % 997,4 hPa 0,0 l/m 0 min 0 min 39 W/m 16,1 km/h (3 Bft) 97,87 %
09.12.2018 11:52 8,0 C 7,2 C 6,7 C 94 % 997,5 hPa 0,0 l/m 0 min 0 min 47 W/m 19,3 km/h (3 Bft) 97,87 %
09.12.2018 11:54 8,0 C 7,2 C 6,7 C 94 % 997,5 hPa 0,0 l/m 0 min 0 min 59 W/m 16,1 km/h (3 Bft) 97,56 %
09.12.2018 11:56 8,0 C 7,2 C 6,7 C 94 % 997,5 hPa 0,0 l/m 0 min 2 min 71 W/m 25,7 km/h (4 Bft) 100,00 %
09.12.2018 11:58 8,0 C 7,2 C 6,7 C 94 % 997,4 hPa 0,0 l/m 0 min 2 min 62 W/m 22,5 km/h (4 Bft) 97,87 %
09.12.2018 12:00 8,0 C 7,2 C 6,7 C 94 % 997,4 hPa 0,0 l/m 0 min 2 min 52 W/m 12,9 km/h (3 Bft) 97,87 %
09.12.2018 12:02 8,0 C 7,2 C 6,7 C 94 % 997,4 hPa 0,0 l/m 0 min 2 min 64 W/m 16,1 km/h (3 Bft) 100,00 %
09.12.2018 12:04 8,0 C 7,2 C 6,7 C 94 % 997,3 hPa 0,0 l/m 0 min 2 min 81 W/m 16,1 km/h (3 Bft) 97,87 %
09.12.2018 12:08 8,1 C 8,9 C 7,2 C 94 % 997,3 hPa 0,0 l/m 0 min 4 min 147 W/m 19,3 km/h (3 Bft) 96,81 %
09.12.2018 12:10 8,1 C 10,0 C 7,2 C 94 % 997,4 hPa 0,0 l/m 2 min 2 min 202 W/m 19,3 km/h (3 Bft) 95,74 %
09.12.2018 12:12 8,2 C 10,0 C 7,8 C 95 % 997,3 hPa 0,0 l/m 2 min 2 min 277 W/m 22,5 km/h (4 Bft) 97,67 %
09.12.2018 12:14 8,2 C 8,9 C 7,2 C 95 % 997,5 hPa 0,0 l/m 2 min 2 min 229 W/m 12,9 km/h (3 Bft) 97,96 %
09.12.2018 12:16 8,3 C 8,3 C 7,2 C 95 % 997,6 hPa 0,0 l/m 0 min 2 min 121 W/m 22,5 km/h (4 Bft) 97,92 %
09.12.2018 12:18 8,3 C 8,3 C 7,2 C 94 % 997,6 hPa 0,0 l/m 0 min 0 min 140 W/m 19,3 km/h (3 Bft) 95,83 %
09.12.2018 12:20 8,3 C 8,3 C 7,2 C 94 % 997,7 hPa 0,0 l/m 0 min 0 min 137 W/m 16,1 km/h (3 Bft) 97,83 %
09.12.2018 12:22 8,3 C 7,8 C 7,2 C 94 % 997,7 hPa 0,0 l/m 0 min 0 min 128 W/m 19,3 km/h (3 Bft) 97,62 %
09.12.2018 12:24 8,4 C 7,8 C 7,2 C 94 % 997,8 hPa 0,0 l/m 0 min 0 min 121 W/m 25,7 km/h (4 Bft) 95,92 %
09.12.2018 12:26 8,4 C 7,8 C 7,2 C 94 % 997,8 hPa 0,0 l/m 0 min 0 min 78 W/m 25,7 km/h (4 Bft) 95,83 %
09.12.2018 12:28 8,4 C 7,8 C 7,2 C 94 % 997,8 hPa 0,0 l/m 0 min 0 min 77 W/m 12,9 km/h (3 Bft) 97,96 %
09.12.2018 12:30 8,4 C 7,8 C 7,2 C 94 % 997,9 hPa 0,0 l/m 0 min 0 min 67 W/m 22,5 km/h (4 Bft) 97,87 %
09.12.2018 12:32 8,4 C 7,8 C 7,2 C 94 % 998,0 hPa 0,0 l/m 0 min 2 min 46 W/m 16,1 km/h (3 Bft) 95,65 %
09.12.2018 12:34 8,4 C 7,2 C 6,7 C 94 % 998,0 hPa 0,0 l/m 0 min 2 min 39 W/m 19,3 km/h (3 Bft) 97,87 %
09.12.2018 12:36 8,4 C 7,2 C 6,7 C 94 % 997,9 hPa 0,0 l/m 0 min 2 min 37 W/m 19,3 km/h (3 Bft) 97,67 %
09.12.2018 12:38 8,4 C 7,2 C 6,7 C 94 % 997,9 hPa 0,0 l/m 0 min 2 min 70 W/m 22,5 km/h (4 Bft) 97,92 %
09.12.2018 12:40 8,4 C 7,8 C 7,2 C 94 % 998,0 hPa 0,0 l/m 0 min 2 min 108 W/m 16,1 km/h (3 Bft) 97,87 %
09.12.2018 12:42 8,4 C 7,2 C 6,7 C 94 % 998,3 hPa 0,0 l/m 0 min 2 min 52 W/m 38,6 km/h (5 Bft) 98,00 %
09.12.2018 12:44 8,3 C 6,7 C 6,1 C 94 % 998,4 hPa 0,4 l/m 0 min 2 min 26 W/m 38,6 km/h (5 Bft) 97,83 %
09.12.2018 12:46 8,2 C 6,1 C 6,1 C 93 % 998,3 hPa 0,4 l/m 0 min 2 min 30 W/m 22,5 km/h (4 Bft) 95,74 %
09.12.2018 12:48 8,0 C 5,6 C 5,6 C 93 % 998,3 hPa 0,4 l/m 0 min 2 min 32 W/m 19,3 km/h (3 Bft) 95,24 %
09.12.2018 12:50 7,8 C 5,6 C 5,6 C 93 % 998,4 hPa 0,2 l/m 0 min 2 min 22 W/m 12,9 km/h (3 Bft) 97,92 %
09.12.2018 12:52 7,7 C 5,6 C 5,6 C 93 % 998,3 hPa 0,2 l/m 0 min 2 min 15 W/m 35,4 km/h (5 Bft) 98,00 %
09.12.2018 12:54 7,6 C 5,6 C 5,6 C 92 % 998,4 hPa 0,2 l/m 0 min 2 min 12 W/m 35,4 km/h (5 Bft) 97,92 %
09.12.2018 12:56 7,4 C 5,6 C 5,6 C 93 % 998,3 hPa 0,2 l/m 0 min 2 min 11 W/m 41,8 km/h (6 Bft) 97,83 %
09.12.2018 12:58 7,3 C 5,6 C 5,6 C 93 % 998,3 hPa 0,2 l/m 0 min 2 min 12 W/m 25,7 km/h (4 Bft) 97,62 %
09.12.2018 13:00 7,3 C 5,6 C 5,6 C 93 % 998,4 hPa 0,2 l/m 0 min 2 min 13 W/m 22,5 km/h (4 Bft) 100,00 %
09.12.2018 13:02 7,2 C 5,6 C 5,6 C 93 % 998,3 hPa 0,0 l/m 0 min 2 min 15 W/m 19,3 km/h (3 Bft) 95,92 %
09.12.2018 13:04 7,2 C 5,6 C 5,6 C 93 % 998,4 hPa 0,2 l/m 0 min 2 min 20 W/m 12,9 km/h (3 Bft) 100,00 %
09.12.2018 13:06 7,1 C 5,6 C 5,6 C 93 % 998,4 hPa 0,0 l/m 0 min 2 min 19 W/m 12,9 km/h (3 Bft) 100,00 %
09.12.2018 13:08 7,1 C 5,6 C 5,6 C 94 % 998,4 hPa 0,0 l/m 0 min 2 min 20 W/m 9,7 km/h (2 Bft) 95,92 %
09.12.2018 13:10 7,0 C 5,6 C 5,6 C 94 % 998,5 hPa 0,2 l/m 0 min 2 min 28 W/m 9,7 km/h (2 Bft) 100,00 %
09.12.2018 13:12 7,0 C 5,6 C 5,6 C 94 % 998,5 hPa 0,0 l/m 0 min 2 min 34 W/m 9,7 km/h (2 Bft) 100,00 %
09.12.2018 13:14 6,9 C 5,6 C 5,6 C 94 % 998,5 hPa 0,2 l/m 0 min 2 min 28 W/m 9,7 km/h (2 Bft) 97,87 %
09.12.2018 13:16 6,9 C 5,6 C 5,6 C 94 % 998,6 hPa 0,2 l/m 0 min 2 min 17 W/m 19,3 km/h (3 Bft) 100,00 %
09.12.2018 13:18 6,9 C 5,6 C 5,6 C 94 % 998,6 hPa 0,0 l/m 0 min 2 min 11 W/m 19,3 km/h (3 Bft) 100,00 %
09.12.2018 13:20 6,9 C 5,6 C 5,6 C 94 % 998,7 hPa 0,0 l/m 0 min 2 min 9 W/m 12,9 km/h (3 Bft) 97,87 %
09.12.2018 13:22 6,8 C 5,6 C 5,6 C 94 % 998,8 hPa 0,2 l/m 0 min 2 min 7 W/m 12,9 km/h (3 Bft) 100,00 %
09.12.2018 13:24 6,8 C 5,6 C 5,6 C 95 % 998,7 hPa 0,0 l/m 0 min 2 min 7 W/m 16,1 km/h (3 Bft) 100,00 %
09.12.2018 13:26 6,8 C 5,6 C 5,6 C 95 % 998,8 hPa 0,0 l/m 0 min 2 min 8 W/m 16,1 km/h (3 Bft) 100,00 %
09.12.2018 13:28 6,8 C 5,6 C 5,6 C 95 % 998,7 hPa 0,0 l/m 0 min 2 min 9 W/m 25,7 km/h (4 Bft) 97,96 %
09.12.2018 13:30 6,8 C 5,6 C 5,6 C 95 % 998,8 hPa 0,0 l/m 0 min 2 min 7 W/m 22,5 km/h (4 Bft) 100,00 %
09.12.2018 13:32 6,8 C 6,1 C 5,6 C 95 % 998,8 hPa 0,0 l/m 0 min 2 min 5 W/m 12,9 km/h (3 Bft) 97,87 %
09.12.2018 13:34 6,8 C 6,1 C 5,6 C 95 % 998,9 hPa 0,2 l/m 0 min 2 min 7 W/m 16,1 km/h (3 Bft) 100,00 %
09.12.2018 13:36 6,8 C 6,1 C 5,6 C 95 % 998,8 hPa 0,0 l/m 0 min 2 min 12 W/m 19,3 km/h (3 Bft) 100,00 %
09.12.2018 13:38 6,9 C 6,1 C 5,6 C 95 % 998,8 hPa 0,0 l/m 0 min 2 min 14 W/m 25,7 km/h (4 Bft) 100,00 %
09.12.2018 13:40 6,9 C 6,1 C 5,6 C 95 % 998,9 hPa 0,0 l/m 0 min 2 min 18 W/m 12,9 km/h (3 Bft) 94,29 %
09.12.2018 13:42 6,9 C 6,1 C 5,6 C 96 % 999,0 hPa 0,0 l/m 0 min 2 min 21 W/m 16,1 km/h (3 Bft) 93,88 %
09.12.2018 13:44 6,9 C 6,1 C 5,6 C 96 % 999,0 hPa 0,0 l/m 0 min 2 min 26 W/m 16,1 km/h (3 Bft) 95,65 %
09.12.2018 13:46 6,9 C 6,1 C 5,6 C 96 % 999,1 hPa 0,0 l/m 0 min 0 min 34 W/m 22,5 km/h (4 Bft) 94,00 %
09.12.2018 13:48 7,0 C 6,1 C 5,6 C 96 % 999,1 hPa 0,0 l/m 0 min 0 min 48 W/m 22,5 km/h (4 Bft) 93,62 %
09.12.2018 13:50 7,0 C 6,1 C 5,6 C 96 % 999,1 hPa 0,0 l/m 0 min 0 min 57 W/m 29,0 km/h (5 Bft) 97,62 %
09.12.2018 13:52 7,0 C 6,1 C 6,1 C 96 % 999,1 hPa 0,0 l/m 0 min 0 min 60 W/m 12,9 km/h (3 Bft) 89,80 %
09.12.2018 13:54 7,1 C 6,7 C 6,1 C 96 % 999,1 hPa 0,0 l/m 0 min 0 min 63 W/m 16,1 km/h (3 Bft) 95,92 %
09.12.2018 13:56 7,1 C 6,7 C 6,1 C 96 % 999,3 hPa 0,0 l/m 0 min 0 min 64 W/m 12,9 km/h (3 Bft) 95,74 %
09.12.2018 13:58 7,1 C 6,7 C 6,1 C 96 % 999,2 hPa 0,0 l/m 0 min 0 min 62 W/m 19,3 km/h (3 Bft) 95,74 %
09.12.2018 14:00 7,1 C 6,7 C 6,1 C 96 % 999,4 hPa 0,0 l/m 0 min 0 min 58 W/m 19,3 km/h (3 Bft) 95,74 %
09.12.2018 14:02 7,2 C 6,7 C 6,1 C 96 % 999,4 hPa 0,0 l/m 0 min 0 min 59 W/m 16,1 km/h (3 Bft) 95,35 %
09.12.2018 14:04 7,2 C 6,7 C 6,1 C 96 % 999,4 hPa 0,0 l/m 0 min 0 min 56 W/m 19,3 km/h (3 Bft) 95,65 %
09.12.2018 14:06 7,2 C 6,7 C 6,1 C 96 % 999,5 hPa 0,0 l/m 0 min 2 min 47 W/m 25,7 km/h (4 Bft) 94,00 %
09.12.2018 14:08 7,2 C 6,7 C 6,1 C 96 % 999,5 hPa 0,0 l/m 0 min 2 min 49 W/m 12,9 km/h (3 Bft) 95,74 %
09.12.2018 14:10 7,2 C 6,7 C 6,1 C 97 % 999,5 hPa 0,0 l/m 0 min 2 min 48 W/m 16,1 km/h (3 Bft) 95,74 %
09.12.2018 14:12 7,2 C 6,7 C 6,1 C 97 % 999,7 hPa 0,0 l/m 0 min 2 min 57 W/m 29,0 km/h (5 Bft) 95,83 %
09.12.2018 14:14 7,2 C 6,7 C 6,1 C 97 % 999,7 hPa 0,0 l/m 0 min 2 min 77 W/m 12,9 km/h (3 Bft) 95,74 %
09.12.2018 14:16 7,3 C 6,7 C 6,1 C 97 % 999,7 hPa 0,0 l/m 0 min 2 min 80 W/m 38,6 km/h (5 Bft) 95,74 %
09.12.2018 14:18 7,3 C 6,7 C 6,1 C 97 % 999,7 hPa 0,0 l/m 0 min 2 min 71 W/m 22,5 km/h (4 Bft) 95,24 %
09.12.2018 14:20 7,3 C 6,7 C 6,1 C 97 % 999,8 hPa 0,0 l/m 0 min 2 min 83 W/m 19,3 km/h (3 Bft) 95,92 %
09.12.2018 14:22 7,3 C 6,7 C 6,1 C 97 % 999,8 hPa 0,0 l/m 0 min 2 min 81 W/m 19,3 km/h (3 Bft) 93,88 %
09.12.2018 14:24 7,3 C 6,7 C 6,1 C 97 % 999,9 hPa 0,0 l/m 0 min 2 min 76 W/m 22,5 km/h (4 Bft) 95,74 %
09.12.2018 14:26 7,3 C 6,7 C 6,1 C 97 % 1000,0 hPa 0,0 l/m 0 min 2 min 75 W/m 16,1 km/h (3 Bft) 95,74 %
09.12.2018 14:28 7,3 C 6,7 C 6,1 C 97 % 1000,0 hPa 0,0 l/m 0 min 2 min 83 W/m 32,2 km/h (5 Bft) 97,56 %
09.12.2018 14:30 7,3 C 6,7 C 6,1 C 97 % 1000,1 hPa 0,0 l/m 0 min 2 min 74 W/m 19,3 km/h (3 Bft) 95,92 %
09.12.2018 14:32 7,3 C 6,7 C 6,1 C 97 % 1000,1 hPa 0,0 l/m 0 min 2 min 59 W/m 16,1 km/h (3 Bft) 98,00 %
09.12.2018 14:34 7,3 C 6,7 C 6,1 C 97 % 1000,1 hPa 0,0 l/m 0 min 2 min 98 W/m 29,0 km/h (5 Bft) 97,87 %
09.12.2018 14:36 7,3 C 6,7 C 6,1 C 97 % 1000,1 hPa 0,0 l/m 0 min 2 min 100 W/m 16,1 km/h (3 Bft) 91,49 %
09.12.2018 14:38 7,3 C 6,7 C 6,1 C 97 % 1000,1 hPa 0,0 l/m 2 min 0 min 151 W/m 16,1 km/h (3 Bft) 100,00 %
09.12.2018 14:40 7,3 C 6,7 C 6,1 C 97 % 1000,2 hPa 0,0 l/m 0 min 2 min 91 W/m 12,9 km/h (3 Bft) 100,00 %
09.12.2018 14:42 7,3 C 7,2 C 6,1 C 97 % 1000,3 hPa 0,0 l/m 0 min 2 min 70 W/m 12,9 km/h (3 Bft) 95,35 %
09.12.2018 14:44 7,4 C 7,2 C 6,1 C 97 % 1000,4 hPa 0,0 l/m 0 min 0 min 76 W/m 16,1 km/h (3 Bft) 97,96 %
09.12.2018 14:46 7,4 C 7,2 C 6,1 C 97 % 1000,4 hPa 0,0 l/m 0 min 2 min 67 W/m 16,1 km/h (3 Bft) 95,83 %
09.12.2018 14:48 7,4 C 7,2 C 6,1 C 97 % 1000,3 hPa 0,0 l/m 0 min 2 min 52 W/m 19,3 km/h (3 Bft) 100,00 %
09.12.2018 14:50 7,4 C 7,2 C 6,1 C 97 % 1000,4 hPa 0,0 l/m 0 min 2 min 50 W/m 16,1 km/h (3 Bft) 97,87 %
09.12.2018 14:52 7,4 C 6,7 C 6,1 C 97 % 1000,5 hPa 0,0 l/m 0 min 0 min 48 W/m 16,1 km/h (3 Bft) 97,62 %
09.12.2018 14:54 7,4 C 6,7 C 6,1 C 97 % 1000,7 hPa 0,0 l/m 0 min 2 min 37 W/m 16,1 km/h (3 Bft) 95,92 %
09.12.2018 14:56 7,4 C 6,7 C 6,1 C 97 % 1000,7 hPa 0,0 l/m 0 min 2 min 47 W/m 16,1 km/h (3 Bft) 97,96 %
09.12.2018 14:58 7,4 C 6,7 C 6,1 C 97 % 1000,8 hPa 0,0 l/m 0 min 2 min 70 W/m 16,1 km/h (3 Bft) 97,87 %
09.12.2018 15:00 7,4 C 7,2 C 6,1 C 97 % 1000,8 hPa 0,0 l/m 0 min 2 min 64 W/m 19,3 km/h (3 Bft) 97,87 %
09.12.2018 15:02 7,4 C 6,7 C 6,1 C 97 % 1000,9 hPa 0,0 l/m 0 min 2 min 45 W/m 22,5 km/h (4 Bft) 97,87 %
09.12.2018 15:04 7,4 C 6,7 C 6,1 C 97 % 1001,0 hPa 0,0 l/m 0 min 2 min 44 W/m 19,3 km/h (3 Bft) 97,87 %
09.12.2018 15:06 7,5 C 6,7 C 6,1 C 97 % 1001,0 hPa 0,0 l/m 0 min 2 min 44 W/m 22,5 km/h (4 Bft) 97,83 %
09.12.2018 15:08 7,5 C 6,7 C 6,1 C 97 % 1001,0 hPa 0,0 l/m 0 min 2 min 45 W/m 16,1 km/h (3 Bft) 97,87 %
09.12.2018 15:10 7,5 C 7,2 C 6,1 C 97 % 1001,1 hPa 0,0 l/m 0 min 2 min 48 W/m 19,3 km/h (3 Bft) 97,87 %
09.12.2018 15:12 7,6 C 7,2 C 6,1 C 97 % 1001,1 hPa 0,0 l/m 0 min 2 min 35 W/m 16,1 km/h (3 Bft) 97,67 %
09.12.2018 15:14 7,6 C 6,7 C 6,1 C 97 % 1001,2 hPa 0,0 l/m 0 min 2 min 40 W/m 22,5 km/h (4 Bft) 97,92 %
09.12.2018 15:16 7,6 C 7,2 C 6,1 C 97 % 1001,3 hPa 0,0 l/m 0 min 0 min 52 W/m 25,7 km/h (4 Bft) 97,96 %
09.12.2018 15:18 7,6 C 7,2 C 6,7 C 97 % 1001,3 hPa 0,0 l/m 0 min 0 min 67 W/m 16,1 km/h (3 Bft) 97,87 %
09.12.2018 15:20 7,6 C 7,2 C 6,7 C 97 % 1001,4 hPa 0,0 l/m 2 min 0 min 75 W/m 19,3 km/h (3 Bft) 95,74 %
09.12.2018 15:22 7,6 C 7,2 C 6,7 C 97 % 1001,4 hPa 0,0 l/m 0 min 0 min 49 W/m 16,1 km/h (3 Bft) 97,62 %
09.12.2018 15:24 7,6 C 7,2 C 6,7 C 97 % 1001,4 hPa 0,0 l/m 0 min 0 min 45 W/m 22,5 km/h (4 Bft) 97,92 %
09.12.2018 15:26 7,6 C 7,2 C 6,7 C 97 % 1001,5 hPa 0,0 l/m 2 min 0 min 70 W/m 16,1 km/h (3 Bft) 95,92 %
09.12.2018 15:28 7,6 C 7,2 C 6,7 C 97 % 1001,6 hPa 0,0 l/m 2 min 0 min 94 W/m 22,5 km/h (4 Bft) 97,96 %
09.12.2018 15:30 7,6 C 7,2 C 6,7 C 97 % 1001,5 hPa 0,0 l/m 2 min 0 min 83 W/m 29,0 km/h (5 Bft) 97,83 %
09.12.2018 15:32 7,7 C 7,2 C 6,7 C 97 % 1001,6 hPa 0,0 l/m 2 min 0 min 63 W/m 16,1 km/h (3 Bft) 95,74 %
09.12.2018 15:34 7,7 C 7,2 C 6,7 C 97 % 1001,6 hPa 0,0 l/m 0 min 0 min 51 W/m 16,1 km/h (3 Bft) 97,67 %
09.12.2018 15:36 7,7 C 7,2 C 6,7 C 97 % 1001,7 hPa 0,0 l/m 2 min 0 min 52 W/m 12,9 km/h (3 Bft) 100,00 %
09.12.2018 15:38 7,7 C 7,2 C 6,7 C 97 % 1001,8 hPa 0,0 l/m 2 min 0 min 57 W/m 12,9 km/h (3 Bft) 100,00 %
09.12.2018 15:40 7,7 C 7,2 C 6,7 C 97 % 1001,7 hPa 0,0 l/m 2 min 0 min 57 W/m 12,9 km/h (3 Bft) 100,00 %
09.12.2018 15:42 7,7 C 7,2 C 6,7 C 97 % 1001,8 hPa 0,0 l/m 2 min 0 min 48 W/m 16,1 km/h (3 Bft) 100,00 %
09.12.2018 15:44 7,7 C 7,2 C 6,7 C 97 % 1001,9 hPa 0,0 l/m 0 min 0 min 39 W/m 9,7 km/h (2 Bft) 100,00 %
09.12.2018 15:46 7,7 C 7,2 C 6,7 C 97 % 1002,0 hPa 0,0 l/m 0 min 0 min 26 W/m 22,5 km/h (4 Bft) 95,24 %
09.12.2018 15:48 7,7 C 6,7 C 6,7 C 97 % 1002,0 hPa 0,0 l/m 0 min 0 min 19 W/m 19,3 km/h (3 Bft) 100,00 %
09.12.2018 15:50 7,7 C 6,7 C 6,7 C 97 % 1002,1 hPa 0,0 l/m 0 min 0 min 15 W/m 19,3 km/h (3 Bft) 100,00 %
09.12.2018 15:52 7,7 C 6,7 C 6,7 C 97 % 1002,1 hPa 0,0 l/m 0 min 0 min 14 W/m 12,9 km/h (3 Bft) 100,00 %
09.12.2018 15:54 7,7 C 6,7 C 6,7 C 97 % 1002,2 hPa 0,0 l/m 0 min 0 min 17 W/m 12,9 km/h (3 Bft) 100,00 %
09.12.2018 15:56 7,7 C 6,7 C 6,1 C 96 % 1002,2 hPa 0,0 l/m 0 min 2 min 20 W/m 12,9 km/h (3 Bft) 100,00 %
09.12.2018 15:58 7,7 C 6,7 C 6,1 C 96 % 1002,3 hPa 0,2 l/m 0 min 2 min 20 W/m 16,1 km/h (3 Bft) 100,00 %
09.12.2018 16:00 7,7 C 6,7 C 6,1 C 96 % 1002,3 hPa 0,0 l/m 0 min 2 min 20 W/m 25,7 km/h (4 Bft) 100,00 %
09.12.2018 16:02 7,7 C 6,7 C 6,1 C 96 % 1002,5 hPa 0,2 l/m 0 min 2 min 14 W/m 19,3 km/h (3 Bft) 100,00 %
09.12.2018 16:04 7,7 C 6,7 C 6,1 C 96 % 1002,5 hPa 0,0 l/m 0 min 2 min 8 W/m 16,1 km/h (3 Bft) 100,00 %
09.12.2018 16:06 7,7 C 6,7 C 6,1 C 96 % 1002,6 hPa 0,2 l/m 0 min 2 min 7 W/m 16,1 km/h (3 Bft) 97,87 %
09.12.2018 16:08 7,7 C 6,7 C 6,1 C 96 % 1002,7 hPa 0,0 l/m 0 min 2 min 7 W/m 12,9 km/h (3 Bft) 100,00 %
09.12.2018 16:10 7,7 C 6,7 C 6,1 C 96 % 1002,7 hPa 0,2 l/m 0 min 2 min 5 W/m 16,1 km/h (3 Bft) 100,00 %
09.12.2018 16:12 7,7 C 6,7 C 6,1 C 96 % 1002,9 hPa 0,0 l/m 0 min 2 min 1 W/m 19,3 km/h (3 Bft) 100,00 %
09.12.2018 16:14 7,6 C 6,7 C 6,1 C 96 % 1002,9 hPa 0,0 l/m 0 min 0 min 1 W/m 22,5 km/h (4 Bft) 100,00 %
09.12.2018 16:16 7,6 C 6,7 C 6,1 C 96 % 1003,0 hPa 0,0 l/m 0 min 0 min 6 W/m 16,1 km/h (3 Bft) 100,00 %
09.12.2018 16:18 7,6 C 6,1 C 6,1 C 96 % 1003,0 hPa 0,0 l/m 0 min 0 min 8 W/m 16,1 km/h (3 Bft) 100,00 %
09.12.2018 16:20 7,6 C 6,1 C 5,6 C 96 % 1003,0 hPa 0,0 l/m 0 min 0 min 9 W/m 16,1 km/h (3 Bft) 97,96 %
09.12.2018 16:22 7,5 C 6,1 C 5,6 C 96 % 1003,1 hPa 0,0 l/m 0 min 0 min 7 W/m 12,9 km/h (3 Bft) 95,92 %
09.12.2018 16:24 7,4 C 6,1 C 5,6 C 96 % 1003,1 hPa 0,0 l/m 0 min 0 min 6 W/m 19,3 km/h (3 Bft) 97,87 %
09.12.2018 16:26 7,4 C 6,1 C 5,6 C 96 % 1003,2 hPa 0,0 l/m 0 min 0 min 5 W/m 16,1 km/h (3 Bft) 97,87 %
09.12.2018 16:28 7,4 C 6,1 C 5,6 C 96 % 1003,1 hPa 0,0 l/m 0 min 0 min 5 W/m 12,9 km/h (3 Bft) 97,56 %
09.12.2018 16:30 7,3 C 6,1 C 5,6 C 96 % 1003,2 hPa 0,0 l/m 0 min 0 min 2 W/m 12,9 km/h (3 Bft) 97,96 %
09.12.2018 16:32 7,3 C 6,1 C 5,6 C 96 % 1003,3 hPa 0,0 l/m 0 min 0 min 0 W/m 16,1 km/h (3 Bft) 94,00 %
09.12.2018 16:34 7,3 C 6,1 C 5,6 C 96 % 1003,3 hPa 0,0 l/m 0 min 0 min 0 W/m 16,1 km/h (3 Bft) 97,87 %
09.12.2018 16:36 7,3 C 6,1 C 5,6 C 96 % 1003,4 hPa 0,0 l/m 0 min 0 min 0 W/m 19,3 km/h (3 Bft) 97,87 %
09.12.2018 16:38 7,3 C 6,1 C 5,6 C 96 % 1003,4 hPa 0,2 l/m 0 min 0 min 0 W/m 16,1 km/h (3 Bft) 97,87 %
09.12.2018 16:40 7,3 C 6,1 C 6,1 C 96 % 1003,5 hPa 0,0 l/m 0 min 0 min 0 W/m 16,1 km/h (3 Bft) 95,65 %
09.12.2018 16:42 7,3 C 6,1 C 5,6 C 96 % 1003,5 hPa 0,0 l/m 0 min 0 min 0 W/m 25,7 km/h (4 Bft) 95,45 %
09.12.2018 16:44 7,3 C 6,1 C 5,6 C 96 % 1003,6 hPa 0,0 l/m 0 min 0 min 0 W/m 29,0 km/h (5 Bft) 91,84 %
09.12.2018 16:46 7,3 C 6,1 C 5,6 C 96 % 1003,7 hPa 0,0 l/m 0 min 0 min 0 W/m 16,1 km/h (3 Bft) 97,92 %
09.12.2018 16:48 7,3 C 6,1 C 5,6 C 96 % 1003,8 hPa 0,0 l/m 0 min 2 min 0 W/m 38,6 km/h (5 Bft) 95,74 %
09.12.2018 16:50 7,3 C 6,1 C 5,6 C 96 % 1003,9 hPa 0,0 l/m 0 min 2 min 0 W/m 25,7 km/h (4 Bft) 97,83 %
09.12.2018 16:52 7,3 C 6,1 C 5,6 C 96 % 1003,9 hPa 0,2 l/m 0 min 2 min 0 W/m 25,7 km/h (4 Bft) 97,67 %
09.12.2018 16:54 7,3 C 6,1 C 5,6 C 96 % 1004,0 hPa 0,0 l/m 0 min 2 min 0 W/m 16,1 km/h (3 Bft) 95,92 %
09.12.2018 16:56 7,3 C 6,1 C 5,6 C 96 % 1004,0 hPa 0,0 l/m 0 min 0 min 0 W/m 22,5 km/h (4 Bft) 97,96 %
09.12.2018 16:58 7,3 C 6,1 C 5,6 C 96 % 1004,1 hPa 0,0 l/m 0 min 0 min 0 W/m 19,3 km/h (3 Bft) 95,74 %
09.12.2018 17:00 7,2 C 6,1 C 5,6 C 96 % 1004,1 hPa 0,0 l/m 0 min 0 min 0 W/m 22,5 km/h (4 Bft) 97,87 %
09.12.2018 17:02 7,2 C 6,1 C 5,6 C 95 % 1004,2 hPa 0,0 l/m 0 min 0 min 0 W/m 22,5 km/h (4 Bft) 97,83 %
09.12.2018 17:04 7,2 C 6,1 C 5,6 C 95 % 1004,3 hPa 0,0 l/m 0 min 2 min 0 W/m 19,3 km/h (3 Bft) 95,74 %
09.12.2018 17:06 7,2 C 6,1 C 5,6 C 95 % 1004,4 hPa 0,0 l/m 0 min 2 min 0 W/m 29,0 km/h (5 Bft) 97,73 %
09.12.2018 17:08 7,2 C 6,1 C 5,6 C 95 % 1004,5 hPa 0,0 l/m 0 min 2 min 0 W/m 16,1 km/h (3 Bft) 95,74 %
09.12.2018 17:10 7,2 C 6,1 C 5,6 C 95 % 1004,6 hPa 0,0 l/m 0 min 2 min 0 W/m 25,7 km/h (4 Bft) 95,83 %
09.12.2018 17:12 7,2 C 6,1 C 5,6 C 95 % 1004,6 hPa 0,0 l/m 0 min 2 min 0 W/m 25,7 km/h (4 Bft) 95,92 %
09.12.2018 17:14 7,2 C 6,1 C 5,6 C 95 % 1004,7 hPa 0,0 l/m 0 min 2 min 0 W/m 19,3 km/h (3 Bft) 97,83 %
09.12.2018 17:16 7,2 C 6,1 C 5,6 C 95 % 1004,7 hPa 0,0 l/m 0 min 2 min 0 W/m 19,3 km/h (3 Bft) 93,62 %
09.12.2018 17:18 7,1 C 6,1 C 5,6 C 95 % 1004,7 hPa 0,2 l/m 0 min 2 min 0 W/m 16,1 km/h (3 Bft) 97,87 %
09.12.2018 17:20 7,1 C 6,1 C 5,6 C 95 % 1004,7 hPa 0,0 l/m 0 min 2 min 0 W/m 16,1 km/h (3 Bft) 95,74 %
09.12.2018 17:22 7,1 C 5,6 C 5,6 C 95 % 1004,9 hPa 0,0 l/m 0 min 2 min 0 W/m 16,1 km/h (3 Bft) 97,67 %
09.12.2018 17:24 7,1 C 5,6 C 5,6 C 95 % 1004,9 hPa 0,0 l/m 0 min 0 min 0 W/m 16,1 km/h (3 Bft) 91,84 %
09.12.2018 17:26 7,1 C 5,6 C 5,6 C 95 % 1004,9 hPa 0,0 l/m 0 min 0 min 0 W/m 16,1 km/h (3 Bft) 95,83 %
09.12.2018 17:28 7,0 C 5,6 C 5,0 C 95 % 1005,0 hPa 0,0 l/m 0 min 0 min 0 W/m 16,1 km/h (3 Bft) 95,74 %
09.12.2018 17:30 7,0 C 5,6 C 5,0 C 95 % 1004,9 hPa 0,0 l/m 0 min 0 min 0 W/m 22,5 km/h (4 Bft) 95,74 %
09.12.2018 17:32 6,9 C 5,6 C 5,0 C 95 % 1005,0 hPa 0,0 l/m 0 min 0 min 0 W/m 16,1 km/h (3 Bft) 95,24 %
09.12.2018 17:34 6,9 C 5,6 C 5,0 C 95 % 1005,0 hPa 0,0 l/m 0 min 0 min 0 W/m 19,3 km/h (3 Bft) 95,74 %
09.12.2018 17:36 6,9 C 5,6 C 5,0 C 95 % 1005,2 hPa 0,0 l/m 0 min 0 min 0 W/m 16,1 km/h (3 Bft) 93,62 %
09.12.2018 17:38 6,9 C 5,6 C 5,0 C 95 % 1005,2 hPa 0,0 l/m 0 min 0 min 0 W/m 19,3 km/h (3 Bft) 93,62 %
09.12.2018 17:40 6,9 C 5,6 C 5,0 C 95 % 1005,3 hPa 0,0 l/m 0 min 0 min 0 W/m 16,1 km/h (3 Bft) 95,74 %
09.12.2018 17:42 6,8 C 5,6 C 5,0 C 95 % 1005,4 hPa 0,0 l/m 0 min 0 min 0 W/m 25,7 km/h (4 Bft) 93,62 %
09.12.2018 17:44 6,8 C 5,6 C 5,0 C 95 % 1005,4 hPa 0,0 l/m 0 min 0 min 0 W/m 16,1 km/h (3 Bft) 95,74 %
09.12.2018 17:46 6,8 C 5,6 C 5,0 C 95 % 1005,4 hPa 0,0 l/m 0 min 0 min 0 W/m 22,5 km/h (4 Bft) 95,65 %
09.12.2018 17:48 6,8 C 5,6 C 5,0 C 95 % 1005,5 hPa 0,0 l/m 0 min 0 min 0 W/m 22,5 km/h (4 Bft) 95,74 %
09.12.2018 17:50 6,8 C 5,6 C 5,0 C 95 % 1005,5 hPa 0,0 l/m 0 min 0 min 0 W/m 16,1 km/h (3 Bft) 95,74 %
09.12.2018 17:52 6,8 C 5,6 C 5,0 C 95 % 1005,5 hPa 0,0 l/m 0 min 0 min 0 W/m 16,1 km/h (3 Bft) 95,74 %
09.12.2018 17:54 6,8 C 5,6 C 5,0 C 95 % 1005,7 hPa 0,0 l/m 0 min 0 min 0 W/m 25,7 km/h (4 Bft) 95,74 %
09.12.2018 17:56 6,8 C 5,6 C 5,0 C 95 % 1005,7 hPa 0,0 l/m 0 min 0 min 0 W/m 19,3 km/h (3 Bft) 95,65 %
09.12.2018 17:58 6,8 C 5,6 C 5,0 C 95 % 1005,7 hPa 0,0 l/m 0 min 0 min 0 W/m 19,3 km/h (3 Bft) 95,74 %
09.12.2018 18:00 6,8 C 5,6 C 5,0 C 95 % 1005,8 hPa 0,0 l/m 0 min 0 min 0 W/m 12,9 km/h (3 Bft) 93,62 %
09.12.2018 18:02 6,7 C 5,6 C 5,0 C 95 % 1005,8 hPa 0,0 l/m 0 min 0 min 0 W/m 19,3 km/h (3 Bft) 95,74 %
09.12.2018 18:04 6,7 C 5,6 C 5,0 C 95 % 1005,9 hPa 0,0 l/m 0 min 0 min 0 W/m 12,9 km/h (3 Bft) 93,62 %
09.12.2018 18:08 6,7 C 5,6 C 5,0 C 95 % 1006,0 hPa 0,0 l/m 0 min 0 min 0 W/m 22,5 km/h (4 Bft) 98,92 %
09.12.2018 18:10 6,7 C 5,6 C 5,0 C 95 % 1006,1 hPa 0,0 l/m 0 min 0 min 0 W/m 16,1 km/h (3 Bft) 97,87 %
09.12.2018 18:12 6,7 C 5,6 C 5,0 C 95 % 1006,1 hPa 0,0 l/m 0 min 0 min 0 W/m 16,1 km/h (3 Bft) 100,00 %
09.12.2018 18:14 6,7 C 5,6 C 5,0 C 95 % 1006,3 hPa 0,0 l/m 0 min 0 min 0 W/m 16,1 km/h (3 Bft) 95,74 %
09.12.2018 18:16 6,7 C 5,6 C 5,0 C 95 % 1006,5 hPa 0,0 l/m 0 min 0 min 0 W/m 12,9 km/h (3 Bft) 100,00 %
09.12.2018 18:18 6,7 C 5,6 C 5,0 C 95 % 1006,5 hPa 0,0 l/m 0 min 2 min 0 W/m 12,9 km/h (3 Bft) 100,00 %
09.12.2018 18:20 6,7 C 5,6 C 5,0 C 95 % 1006,5 hPa 0,0 l/m 0 min 2 min 0 W/m 19,3 km/h (3 Bft) 100,00 %
09.12.2018 18:22 6,7 C 5,6 C 5,0 C 95 % 1006,6 hPa 0,0 l/m 0 min 2 min 0 W/m 16,1 km/h (3 Bft) 97,83 %
09.12.2018 18:24 6,7 C 5,6 C 5,0 C 95 % 1006,6 hPa 0,2 l/m 0 min 2 min 0 W/m 19,3 km/h (3 Bft) 100,00 %
09.12.2018 18:26 6,7 C 5,6 C 5,0 C 95 % 1006,7 hPa 0,0 l/m 0 min 2 min 0 W/m 19,3 km/h (3 Bft) 100,00 %
09.12.2018 18:28 6,8 C 5,6 C 5,0 C 95 % 1006,6 hPa 0,0 l/m 0 min 2 min 0 W/m 16,1 km/h (3 Bft) 100,00 %
09.12.2018 18:30 6,8 C 5,6 C 5,0 C 95 % 1006,6 hPa 0,0 l/m 0 min 2 min 0 W/m 12,9 km/h (3 Bft) 100,00 %
09.12.2018 18:32 6,8 C 5,6 C 5,0 C 95 % 1006,7 hPa 0,0 l/m 0 min 0 min 0 W/m 12,9 km/h (3 Bft) 100,00 %
09.12.2018 18:34 6,8 C 5,6 C 5,0 C 95 % 1006,8 hPa 0,0 l/m 0 min 2 min 0 W/m 25,7 km/h (4 Bft) 100,00 %
09.12.2018 18:36 6,8 C 5,6 C 5,0 C 95 % 1006,8 hPa 0,0 l/m 0 min 2 min 0 W/m 16,1 km/h (3 Bft) 100,00 %
09.12.2018 18:38 6,8 C 5,6 C 5,0 C 95 % 1006,8 hPa 0,0 l/m 0 min 2 min 0 W/m 12,9 km/h (3 Bft) 100,00 %
09.12.2018 18:40 6,8 C 5,6 C 5,0 C 95 % 1006,8 hPa 0,0 l/m 0 min 2 min 0 W/m 19,3 km/h (3 Bft) 100,00 %
09.12.2018 18:42 6,7 C 5,6 C 5,0 C 95 % 1006,9 hPa 0,0 l/m 0 min 2 min 0 W/m 19,3 km/h (3 Bft) 100,00 %
09.12.2018 18:44 6,7 C 5,6 C 5,0 C 95 % 1007,0 hPa 0,0 l/m 0 min 2 min 0 W/m 16,1 km/h (3 Bft) 97,83 %
09.12.2018 18:46 6,7 C 5,6 C 5,0 C 95 % 1007,0 hPa 0,0 l/m 0 min 0 min 0 W/m 19,3 km/h (3 Bft) 100,00 %
09.12.2018 18:48 6,7 C 5,6 C 5,0 C 95 % 1007,1 hPa 0,0 l/m 0 min 0 min 0 W/m 22,5 km/h (4 Bft) 97,87 %
09.12.2018 18:50 6,7 C 5,6 C 5,0 C 95 % 1007,3 hPa 0,0 l/m 0 min 0 min 0 W/m 25,7 km/h (4 Bft) 100,00 %
09.12.2018 18:52 6,7 C 5,6 C 5,0 C 95 % 1007,3 hPa 0,0 l/m 0 min 0 min 0 W/m 22,5 km/h (4 Bft) 97,87 %
09.12.2018 18:54 6,6 C 5,6 C 5,0 C 95 % 1007,3 hPa 0,0 l/m 0 min 0 min 0 W/m 19,3 km/h (3 Bft) 100,00 %
09.12.2018 18:56 6,6 C 5,6 C 5,0 C 95 % 1007,3 hPa 0,0 l/m 0 min 0 min 0 W/m 16,1 km/h (3 Bft) 97,83 %
09.12.2018 18:58 6,6 C 5,6 C 5,0 C 95 % 1007,3 hPa 0,0 l/m 0 min 0 min 0 W/m 25,7 km/h (4 Bft) 97,87 %
09.12.2018 19:00 6,7 C 5,6 C 5,0 C 95 % 1007,5 hPa 0,0 l/m 0 min 0 min 0 W/m 25,7 km/h (4 Bft) 97,87 %
09.12.2018 19:02 6,7 C 5,6 C 5,0 C 95 % 1007,5 hPa 0,0 l/m 0 min 0 min 0 W/m 19,3 km/h (3 Bft) 95,74 %
09.12.2018 19:04 6,7 C 5,6 C 5,0 C 95 % 1007,6 hPa 0,0 l/m 0 min 0 min 0 W/m 19,3 km/h (3 Bft) 97,87 %
09.12.2018 19:06 6,6 C 5,6 C 5,0 C 95 % 1007,6 hPa 0,0 l/m 0 min 0 min 0 W/m 16,1 km/h (3 Bft) 97,83 %
09.12.2018 19:08 6,6 C 5,6 C 5,0 C 95 % 1007,9 hPa 0,0 l/m 0 min 0 min 0 W/m 16,1 km/h (3 Bft) 97,87 %
09.12.2018 19:10 6,6 C 5,6 C 5,0 C 95 % 1008,0 hPa 0,0 l/m 0 min 0 min 0 W/m 16,1 km/h (3 Bft) 97,87 %
09.12.2018 19:12 6,6 C 5,6 C 5,0 C 95 % 1007,9 hPa 0,0 l/m 0 min 0 min 0 W/m 19,3 km/h (3 Bft) 97,87 %
09.12.2018 19:14 6,6 C 5,6 C 5,0 C 95 % 1008,1 hPa 0,0 l/m 0 min 0 min 0 W/m 22,5 km/h (4 Bft) 97,87 %
09.12.2018 19:16 6,6 C 5,6 C 5,0 C 95 % 1008,0 hPa 0,0 l/m 0 min 0 min 0 W/m 22,5 km/h (4 Bft) 97,87 %
09.12.2018 19:18 6,5 C 5,6 C 5,0 C 95 % 1008,0 hPa 0,0 l/m 0 min 0 min 0 W/m 19,3 km/h (3 Bft) 91,30 %
09.12.2018 19:20 6,5 C 5,6 C 5,0 C 95 % 1008,1 hPa 0,0 l/m 0 min 0 min 0 W/m 29,0 km/h (5 Bft) 97,87 %
09.12.2018 19:22 6,4 C 5,6 C 5,0 C 95 % 1008,0 hPa 0,0 l/m 0 min 0 min 0 W/m 16,1 km/h (3 Bft) 97,87 %
09.12.2018 19:24 6,4 C 5,6 C 5,0 C 95 % 1008,2 hPa 0,0 l/m 0 min 2 min 0 W/m 22,5 km/h (4 Bft) 97,87 %
09.12.2018 19:26 6,4 C 5,6 C 5,0 C 95 % 1008,2 hPa 0,0 l/m 0 min 2 min 0 W/m 22,5 km/h (4 Bft) 97,87 %
09.12.2018 19:28 6,4 C 5,6 C 5,0 C 95 % 1008,1 hPa 0,0 l/m 0 min 2 min 0 W/m 22,5 km/h (4 Bft) 97,87 %
09.12.2018 19:30 6,4 C 5,6 C 5,0 C 95 % 1008,3 hPa 0,0 l/m 0 min 2 min 0 W/m 22,5 km/h (4 Bft) 95,65 %
09.12.2018 19:32 6,4 C 5,6 C 5,0 C 95 % 1008,3 hPa 0,0 l/m 0 min 2 min 0 W/m 19,3 km/h (3 Bft) 97,87 %
09.12.2018 19:34 6,4 C 5,0 C 5,0 C 95 % 1008,3 hPa 0,0 l/m 0 min 2 min 0 W/m 25,7 km/h (4 Bft) 97,87 %
09.12.2018 19:36 6,4 C 5,0 C 5,0 C 95 % 1008,3 hPa 0,0 l/m 0 min 2 min 0 W/m 25,7 km/h (4 Bft) 96,15 %
09.12.2018 19:38 6,4 C 5,0 C 5,0 C 95 % 1008,3 hPa 0,0 l/m 0 min 2 min 0 W/m 22,5 km/h (4 Bft) 95,24 %
09.12.2018 19:40 6,4 C 5,0 C 5,0 C 95 % 1008,4 hPa 0,0 l/m 0 min 2 min 0 W/m 22,5 km/h (4 Bft) 97,87 %
09.12.2018 19:42 6,4 C 5,0 C 5,0 C 95 % 1008,6 hPa 0,0 l/m 0 min 2 min 0 W/m 19,3 km/h (3 Bft) 97,83 %
09.12.2018 19:44 6,4 C 5,0 C 5,0 C 95 % 1008,7 hPa 0,0 l/m 0 min 2 min 0 W/m 22,5 km/h (4 Bft) 97,87 %
09.12.2018 19:46 6,4 C 5,0 C 5,0 C 95 % 1008,8 hPa 0,0 l/m 0 min 2 min 0 W/m 19,3 km/h (3 Bft) 95,74 %
09.12.2018 19:48 6,3 C 5,0 C 4,4 C 95 % 1008,9 hPa 0,0 l/m 0 min 2 min 0 W/m 12,9 km/h (3 Bft) 97,87 %
09.12.2018 19:50 6,3 C 5,0 C 4,4 C 95 % 1008,9 hPa 0,0 l/m 0 min 2 min 0 W/m 16,1 km/h (3 Bft) 95,74 %
09.12.2018 19:52 6,3 C 5,0 C 4,4 C 95 % 1009,0 hPa 0,0 l/m 0 min 2 min 0 W/m 12,9 km/h (3 Bft) 95,74 %
09.12.2018 19:54 6,3 C 5,0 C 4,4 C 95 % 1008,9 hPa 0,0 l/m 0 min 2 min 0 W/m 12,9 km/h (3 Bft) 97,83 %
09.12.2018 19:56 6,3 C 5,0 C 4,4 C 95 % 1009,0 hPa 0,0 l/m 0 min 2 min 0 W/m 16,1 km/h (3 Bft) 97,87 %
09.12.2018 19:58 6,3 C 5,0 C 5,0 C 95 % 1009,0 hPa 0,0 l/m 0 min 2 min 0 W/m 22,5 km/h (4 Bft) 93,62 %
09.12.2018 20:00 6,3 C 5,6 C 5,0 C 94 % 1009,0 hPa 0,0 l/m 0 min 2 min 0 W/m 19,3 km/h (3 Bft) 97,87 %
09.12.2018 20:02 6,3 C 5,6 C 5,0 C 94 % 1009,0 hPa 0,0 l/m 0 min 2 min 0 W/m 12,9 km/h (3 Bft) 97,87 %
09.12.2018 20:04 6,3 C 5,6 C 5,0 C 94 % 1009,1 hPa 0,0 l/m 0 min 2 min 0 W/m 12,9 km/h (3 Bft) 97,87 %
09.12.2018 20:06 6,3 C 5,6 C 5,0 C 94 % 1009,2 hPa 0,0 l/m 0 min 2 min 0 W/m 16,1 km/h (3 Bft) 96,15 %
09.12.2018 20:08 6,3 C 5,6 C 5,0 C 94 % 1009,2 hPa 0,0 l/m 0 min 2 min 0 W/m 19,3 km/h (3 Bft) 95,12 %
09.12.2018 20:10 6,3 C 5,0 C 5,0 C 94 % 1009,3 hPa 0,0 l/m 0 min 2 min 0 W/m 16,1 km/h (3 Bft) 97,87 %
09.12.2018 20:12 6,3 C 5,0 C 5,0 C 94 % 1009,3 hPa 0,0 l/m 0 min 2 min 0 W/m 22,5 km/h (4 Bft) 95,74 %
09.12.2018 20:14 6,3 C 5,0 C 4,4 C 95 % 1009,3 hPa 0,0 l/m 0 min 2 min 0 W/m 19,3 km/h (3 Bft) 97,87 %
09.12.2018 20:16 6,3 C 5,0 C 4,4 C 95 % 1009,4 hPa 0,0 l/m 0 min 2 min 0 W/m 16,1 km/h (3 Bft) 97,83 %
09.12.2018 20:18 6,3 C 5,0 C 4,4 C 95 % 1009,4 hPa 0,0 l/m 0 min 2 min 0 W/m 16,1 km/h (3 Bft) 97,87 %
09.12.2018 20:20 6,2 C 5,0 C 4,4 C 95 % 1009,4 hPa 0,0 l/m 0 min 0 min 0 W/m 22,5 km/h (4 Bft) 97,87 %
09.12.2018 20:22 6,2 C 5,0 C 4,4 C 95 % 1009,4 hPa 0,0 l/m 0 min 0 min 0 W/m 16,1 km/h (3 Bft) 97,87 %
09.12.2018 20:24 6,2 C 5,0 C 4,4 C 95 % 1009,4 hPa 0,0 l/m 0 min 0 min 0 W/m 12,9 km/h (3 Bft) 97,87 %
09.12.2018 20:26 6,2 C 5,0 C 4,4 C 95 % 1009,6 hPa 0,0 l/m 0 min 0 min 0 W/m 12,9 km/h (3 Bft) 97,87 %
09.12.2018 20:28 6,1 C 5,0 C 4,4 C 95 % 1009,7 hPa 0,0 l/m 0 min 0 min 0 W/m 22,5 km/h (4 Bft) 97,83 %
09.12.2018 20:30 6,1 C 5,0 C 4,4 C 95 % 1009,7 hPa 0,0 l/m 0 min 0 min 0 W/m 12,9 km/h (3 Bft) 100,00 %
09.12.2018 20:32 6,1 C 5,0 C 4,4 C 95 % 1009,7 hPa 0,0 l/m 0 min 0 min 0 W/m 19,3 km/h (3 Bft) 100,00 %
09.12.2018 20:34 6,1 C 5,0 C 4,4 C 95 % 1009,7 hPa 0,0 l/m 0 min 0 min 0 W/m 12,9 km/h (3 Bft) 100,00 %
09.12.2018 20:36 6,1 C 5,0 C 4,4 C 95 % 1009,8 hPa 0,0 l/m 0 min 0 min 0 W/m 12,9 km/h (3 Bft) 100,00 %
09.12.2018 20:38 6,0 C 5,0 C 4,4 C 95 % 1009,8 hPa 0,0 l/m 0 min 0 min 0 W/m 19,3 km/h (3 Bft) 97,92 %
09.12.2018 20:40 6,0 C 5,0 C 4,4 C 95 % 1009,8 hPa 0,0 l/m 0 min 0 min 0 W/m 16,1 km/h (3 Bft) 97,87 %
09.12.2018 20:42 6,0 C 5,0 C 4,4 C 95 % 1009,9 hPa 0,0 l/m 0 min 0 min 0 W/m 9,7 km/h (2 Bft) 100,00 %
09.12.2018 20:44 5,9 C 5,0 C 4,4 C 95 % 1009,8 hPa 0,0 l/m 0 min 0 min 0 W/m 9,7 km/h (2 Bft) 100,00 %
09.12.2018 20:46 5,9 C 5,0 C 4,4 C 94 % 1009,9 hPa 0,0 l/m 0 min 0 min 0 W/m 9,7 km/h (2 Bft) 95,74 %
09.12.2018 20:48 6,0 C 5,0 C 4,4 C 95 % 1010,0 hPa 0,0 l/m 0 min 0 min 0 W/m 9,7 km/h (2 Bft) 97,87 %
09.12.2018 20:50 6,0 C 5,0 C 4,4 C 95 % 1010,1 hPa 0,0 l/m 0 min 0 min 0 W/m 16,1 km/h (3 Bft) 97,87 %
09.12.2018 20:52 6,0 C 5,0 C 4,4 C 95 % 1010,2 hPa 0,0 l/m 0 min 0 min 0 W/m 9,7 km/h (2 Bft) 97,87 %
09.12.2018 20:54 6,0 C 5,0 C 4,4 C 95 % 1010,1 hPa 0,0 l/m 0 min 0 min 0 W/m 19,3 km/h (3 Bft) 97,87 %
09.12.2018 20:56 6,0 C 5,0 C 4,4 C 95 % 1010,2 hPa 0,0 l/m 0 min 0 min 0 W/m 19,3 km/h (3 Bft) 97,83 %
09.12.2018 20:58 6,0 C 5,0 C 4,4 C 95 % 1010,2 hPa 0,0 l/m 0 min 0 min 0 W/m 19,3 km/h (3 Bft) 93,62 %
09.12.2018 21:00 6,0 C 5,0 C 4,4 C 95 % 1010,3 hPa 0,0 l/m 0 min 0 min 0 W/m 19,3 km/h (3 Bft) 97,87 %
09.12.2018 21:02 6,0 C 5,0 C 4,4 C 95 % 1010,3 hPa 0,0 l/m 0 min 0 min 0 W/m 16,1 km/h (3 Bft) 95,74 %
09.12.2018 21:04 6,0 C 5,0 C 4,4 C 95 % 1010,4 hPa 0,0 l/m 0 min 0 min 0 W/m 12,9 km/h (3 Bft) 97,87 %
09.12.2018 21:06 6,0 C 5,0 C 4,4 C 95 % 1010,4 hPa 0,0 l/m 0 min 0 min 0 W/m 19,3 km/h (3 Bft) 97,87 %
09.12.2018 21:08 5,9 C 5,0 C 4,4 C 95 % 1010,4 hPa 0,0 l/m 0 min 0 min 0 W/m 16,1 km/h (3 Bft) 97,83 %
09.12.2018 21:10 5,9 C 5,0 C 4,4 C 95 % 1010,4 hPa 0,0 l/m 0 min 0 min 0 W/m 9,7 km/h (2 Bft) 97,87 %
09.12.2018 21:12 5,9 C 5,0 C 4,4 C 95 % 1010,4 hPa 0,0 l/m 0 min 0 min 0 W/m 16,1 km/h (3 Bft) 97,87 %
09.12.2018 21:14 5,9 C 5,0 C 4,4 C 95 % 1010,4 hPa 0,0 l/m 0 min 0 min 0 W/m 25,7 km/h (4 Bft) 95,74 %
09.12.2018 21:16 5,9 C 5,0 C 4,4 C 95 % 1010,5 hPa 0,0 l/m 0 min 0 min 0 W/m 16,1 km/h (3 Bft) 95,74 %
09.12.2018 21:18 5,9 C 5,0 C 4,4 C 95 % 1010,4 hPa 0,0 l/m 0 min 0 min 0 W/m 12,9 km/h (3 Bft) 95,65 %
09.12.2018 21:20 5,8 C 5,0 C 4,4 C 95 % 1010,5 hPa 0,0 l/m 0 min 0 min 0 W/m 12,9 km/h (3 Bft) 95,74 %
09.12.2018 21:22 5,8 C 5,0 C 4,4 C 95 % 1010,4 hPa 0,0 l/m 0 min 0 min 0 W/m 16,1 km/h (3 Bft) 95,74 %
09.12.2018 21:24 5,8 C 5,0 C 4,4 C 94 % 1010,5 hPa 0,0 l/m 0 min 0 min 0 W/m 19,3 km/h (3 Bft) 97,87 %
09.12.2018 21:26 5,8 C 5,0 C 4,4 C 94 % 1010,6 hPa 0,0 l/m 0 min 0 min 0 W/m 22,5 km/h (4 Bft) 97,87 %
09.12.2018 21:28 5,8 C 5,0 C 4,4 C 94 % 1010,7 hPa 0,0 l/m 0 min 0 min 0 W/m 16,1 km/h (3 Bft) 97,87 %
09.12.2018 21:30 5,8 C 5,0 C 4,4 C 94 % 1010,8 hPa 0,0 l/m 0 min 0 min 0 W/m 19,3 km/h (3 Bft) 97,87 %
09.12.2018 21:32 5,9 C 5,0 C 4,4 C 95 % 1010,9 hPa 0,0 l/m 0 min 2 min 0 W/m 19,3 km/h (3 Bft) 95,65 %
09.12.2018 21:34 5,9 C 5,0 C 4,4 C 95 % 1010,9 hPa 0,0 l/m 0 min 2 min 0 W/m 16,1 km/h (3 Bft) 97,87 %
09.12.2018 21:36 5,9 C 5,0 C 4,4 C 95 % 1010,8 hPa 0,0 l/m 0 min 2 min 0 W/m 19,3 km/h (3 Bft) 97,87 %
09.12.2018 21:38 5,9 C 5,0 C 4,4 C 95 % 1010,9 hPa 0,0 l/m 0 min 2 min 0 W/m 19,3 km/h (3 Bft) 97,87 %
09.12.2018 21:40 5,9 C 5,0 C 4,4 C 95 % 1010,9 hPa 0,0 l/m 0 min 2 min 0 W/m 19,3 km/h (3 Bft) 97,87 %
09.12.2018 21:42 5,9 C 5,0 C 4,4 C 95 % 1010,8 hPa 0,0 l/m 0 min 2 min 0 W/m 16,1 km/h (3 Bft) 97,83 %
09.12.2018 21:44 5,9 C 5,0 C 4,4 C 95 % 1010,9 hPa 0,0 l/m 0 min 2 min 0 W/m 16,1 km/h (3 Bft) 97,87 %
09.12.2018 21:46 5,9 C 5,0 C 4,4 C 95 % 1010,9 hPa 0,0 l/m 0 min 2 min 0 W/m 19,3 km/h (3 Bft) 97,87 %
09.12.2018 21:48 5,9 C 5,0 C 4,4 C 95 % 1011,0 hPa 0,0 l/m 0 min 2 min 0 W/m 12,9 km/h (3 Bft) 97,87 %
09.12.2018 21:50 5,9 C 5,0 C 4,4 C 95 % 1010,9 hPa 0,0 l/m 0 min 2 min 0 W/m 12,9 km/h (3 Bft) 95,74 %
09.12.2018 21:52 5,9 C 5,0 C 4,4 C 95 % 1011,0 hPa 0,0 l/m 0 min 2 min 0 W/m 16,1 km/h (3 Bft) 97,87 %
09.12.2018 21:54 5,9 C 5,0 C 4,4 C 95 % 1011,0 hPa 0,0 l/m 0 min 2 min 0 W/m 12,9 km/h (3 Bft) 95,65 %
09.12.2018 21:56 5,9 C 5,0 C 4,4 C 95 % 1011,0 hPa 0,0 l/m 0 min 2 min 0 W/m 12,9 km/h (3 Bft) 95,74 %
09.12.2018 21:58 5,9 C 5,0 C 4,4 C 95 % 1011,1 hPa 0,0 l/m 0 min 2 min 0 W/m 9,7 km/h (2 Bft) 95,74 %
09.12.2018 22:00 5,9 C 5,0 C 4,4 C 95 % 1011,2 hPa 0,0 l/m 0 min 2 min 0 W/m 22,5 km/h (4 Bft) 93,62 %
09.12.2018 22:02 5,9 C 5,0 C 4,4 C 95 % 1011,1 hPa 0,0 l/m 0 min 2 min 0 W/m 9,7 km/h (2 Bft) 97,87 %
09.12.2018 22:04 5,8 C 4,4 C 4,4 C 95 % 1011,2 hPa 0,0 l/m 0 min 2 min 0 W/m 12,9 km/h (3 Bft) 95,74 %
09.12.2018 22:06 5,8 C 4,4 C 4,4 C 95 % 1011,2 hPa 0,0 l/m 0 min 2 min 0 W/m 16,1 km/h (3 Bft) 93,48 %
09.12.2018 22:08 5,8 C 4,4 C 4,4 C 95 % 1011,2 hPa 0,0 l/m 0 min 2 min 0 W/m 16,1 km/h (3 Bft) 93,62 %
09.12.2018 22:10 5,8 C 4,4 C 4,4 C 95 % 1011,2 hPa 0,0 l/m 0 min 2 min 0 W/m 16,1 km/h (3 Bft) 95,74 %
09.12.2018 22:12 5,8 C 4,4 C 3,9 C 95 % 1011,3 hPa 0,0 l/m 0 min 2 min 0 W/m 9,7 km/h (2 Bft) 95,74 %
09.12.2018 22:14 5,8 C 4,4 C 4,4 C 95 % 1011,3 hPa 0,0 l/m 0 min 2 min 0 W/m 19,3 km/h (3 Bft) 93,62 %
09.12.2018 22:16 5,8 C 5,0 C 4,4 C 95 % 1011,3 hPa 0,0 l/m 0 min 2 min 0 W/m 9,7 km/h (2 Bft) 95,74 %
09.12.2018 22:18 5,8 C 5,0 C 4,4 C 95 % 1011,3 hPa 0,0 l/m 0 min 2 min 0 W/m 16,1 km/h (3 Bft) 93,48 %
09.12.2018 22:20 5,8 C 5,0 C 4,4 C 95 % 1011,3 hPa 0,0 l/m 0 min 2 min 0 W/m 16,1 km/h (3 Bft) 93,62 %
09.12.2018 22:22 5,8 C 5,0 C 4,4 C 95 % 1011,4 hPa 0,0 l/m 0 min 2 min 0 W/m 12,9 km/h (3 Bft) 95,74 %
09.12.2018 22:24 5,8 C 5,0 C 4,4 C 95 % 1011,4 hPa 0,0 l/m 0 min 2 min 0 W/m 12,9 km/h (3 Bft) 95,74 %
09.12.2018 22:26 5,8 C 5,0 C 4,4 C 95 % 1011,5 hPa 0,0 l/m 0 min 2 min 0 W/m 19,3 km/h (3 Bft) 91,49 %
09.12.2018 22:28 5,8 C 5,0 C 4,4 C 95 % 1011,6 hPa 0,0 l/m 0 min 2 min 0 W/m 12,9 km/h (3 Bft) 95,74 %
09.12.2018 22:30 5,8 C 5,0 C 4,4 C 95 % 1011,6 hPa 0,0 l/m 0 min 2 min 0 W/m 9,7 km/h (2 Bft) 95,65 %
09.12.2018 22:32 5,8 C 5,0 C 4,4 C 95 % 1011,7 hPa 0,0 l/m 0 min 2 min 0 W/m 9,7 km/h (2 Bft) 95,74 %
09.12.2018 22:34 5,8 C 4,4 C 4,4 C 95 % 1011,7 hPa 0,0 l/m 0 min 2 min 0 W/m 9,7 km/h (2 Bft) 95,74 %
09.12.2018 22:36 5,7 C 4,4 C 4,4 C 95 % 1011,9 hPa 0,0 l/m 0 min 2 min 0 W/m 16,1 km/h (3 Bft) 95,74 %
09.12.2018 22:38 5,7 C 4,4 C 4,4 C 95 % 1011,9 hPa 0,0 l/m 0 min 2 min 0 W/m 9,7 km/h (2 Bft) 93,62 %
09.12.2018 22:40 5,7 C 4,4 C 3,9 C 95 % 1011,8 hPa 0,0 l/m 0 min 2 min 0 W/m 19,3 km/h (3 Bft) 95,74 %
09.12.2018 22:42 5,7 C 4,4 C 3,9 C 95 % 1011,9 hPa 0,0 l/m 0 min 2 min 0 W/m 9,7 km/h (2 Bft) 97,83 %
09.12.2018 22:44 5,6 C 4,4 C 3,9 C 95 % 1011,9 hPa 0,0 l/m 0 min 2 min 0 W/m 12,9 km/h (3 Bft) 97,87 %
09.12.2018 22:46 5,6 C 4,4 C 3,9 C 95 % 1012,1 hPa 0,0 l/m 0 min 2 min 0 W/m 9,7 km/h (2 Bft) 97,87 %
09.12.2018 22:48 5,6 C 4,4 C 3,9 C 95 % 1012,0 hPa 0,0 l/m 0 min 2 min 0 W/m 9,7 km/h (2 Bft) 97,87 %
09.12.2018 22:50 5,6 C 4,4 C 3,9 C 95 % 1012,1 hPa 0,0 l/m 0 min 2 min 0 W/m 9,7 km/h (2 Bft) 97,87 %
09.12.2018 22:52 5,5 C 4,4 C 3,9 C 95 % 1012,1 hPa 0,0 l/m 0 min 2 min 0 W/m 12,9 km/h (3 Bft) 97,83 %
09.12.2018 22:54 5,4 C 4,4 C 3,9 C 95 % 1012,0 hPa 0,0 l/m 0 min 2 min 0 W/m 22,5 km/h (4 Bft) 100,00 %
09.12.2018 22:56 5,4 C 4,4 C 3,9 C 95 % 1012,1 hPa 0,0 l/m 0 min 2 min 0 W/m 12,9 km/h (3 Bft) 100,00 %
09.12.2018 22:58 5,4 C 4,4 C 3,9 C 95 % 1012,1 hPa 0,0 l/m 0 min 2 min 0 W/m 12,9 km/h (3 Bft) 97,87 %
09.12.2018 23:00 5,4 C 4,4 C 3,9 C 95 % 1012,1 hPa 0,0 l/m 0 min 2 min 0 W/m 12,9 km/h (3 Bft) 97,87 %
09.12.2018 23:02 5,4 C 4,4 C 3,9 C 95 % 1012,1 hPa 0,0 l/m 0 min 2 min 0 W/m 25,7 km/h (4 Bft) 100,00 %
09.12.2018 23:04 5,3 C 4,4 C 3,9 C 95 % 1012,2 hPa 0,0 l/m 0 min 2 min 0 W/m 12,9 km/h (3 Bft) 100,00 %
09.12.2018 23:06 5,3 C 4,4 C 3,9 C 95 % 1012,2 hPa 0,0 l/m 0 min 2 min 0 W/m 12,9 km/h (3 Bft) 100,00 %
09.12.2018 23:08 5,3 C 3,9 C 3,9 C 95 % 1012,3 hPa 0,0 l/m 0 min 2 min 0 W/m 9,7 km/h (2 Bft) 100,00 %
09.12.2018 23:10 5,3 C 4,4 C 3,9 C 95 % 1012,2 hPa 0,0 l/m 0 min 2 min 0 W/m 12,9 km/h (3 Bft) 100,00 %
09.12.2018 23:12 5,3 C 4,4 C 3,9 C 95 % 1012,3 hPa 0,0 l/m 0 min 2 min 0 W/m 9,7 km/h (2 Bft) 100,00 %
09.12.2018 23:14 5,2 C 4,4 C 3,9 C 95 % 1012,3 hPa 0,0 l/m 0 min 2 min 0 W/m 12,9 km/h (3 Bft) 100,00 %
09.12.2018 23:16 5,2 C 4,4 C 3,9 C 95 % 1012,4 hPa 0,0 l/m 0 min 2 min 0 W/m 16,1 km/h (3 Bft) 100,00 %
09.12.2018 23:18 5,2 C 4,4 C 3,9 C 95 % 1012,4 hPa 0,2 l/m 0 min 0 min 0 W/m 12,9 km/h (3 Bft) 100,00 %
09.12.2018 23:20 5,2 C 4,4 C 3,9 C 95 % 1012,4 hPa 0,0 l/m 0 min 2 min 0 W/m 12,9 km/h (3 Bft) 100,00 %
09.12.2018 23:22 5,2 C 4,4 C 3,9 C 95 % 1012,5 hPa 0,0 l/m 0 min 2 min 0 W/m 9,7 km/h (2 Bft) 100,00 %
09.12.2018 23:24 5,2 C 4,4 C 3,9 C 95 % 1012,5 hPa 0,0 l/m 0 min 2 min 0 W/m 12,9 km/h (3 Bft) 100,00 %
09.12.2018 23:26 5,2 C 4,4 C 3,9 C 95 % 1012,6 hPa 0,0 l/m 0 min 2 min 0 W/m 12,9 km/h (3 Bft) 100,00 %
09.12.2018 23:28 5,2 C 4,4 C 4,4 C 95 % 1012,6 hPa 0,0 l/m 0 min 2 min 0 W/m 12,9 km/h (3 Bft) 97,87 %
09.12.2018 23:30 5,2 C 4,4 C 4,4 C 95 % 1012,7 hPa 0,0 l/m 0 min 2 min 0 W/m 9,7 km/h (2 Bft) 97,87 %
09.12.2018 23:32 5,2 C 4,4 C 3,9 C 95 % 1012,6 hPa 0,0 l/m 0 min 0 min 0 W/m 16,1 km/h (3 Bft) 100,00 %
09.12.2018 23:34 5,2 C 4,4 C 3,9 C 95 % 1012,7 hPa 0,0 l/m 0 min 2 min 0 W/m 16,1 km/h (3 Bft) 97,87 %
09.12.2018 23:36 5,2 C 3,9 C 3,9 C 95 % 1012,8 hPa 0,0 l/m 0 min 0 min 0 W/m 12,9 km/h (3 Bft) 97,87 %
09.12.2018 23:38 5,2 C 4,4 C 3,9 C 95 % 1012,8 hPa 0,0 l/m 0 min 2 min 0 W/m 22,5 km/h (4 Bft) 100,00 %
09.12.2018 23:40 5,2 C 4,4 C 3,9 C 95 % 1012,8 hPa 0,0 l/m 0 min 2 min 0 W/m 22,5 km/h (4 Bft) 100,00 %
09.12.2018 23:42 5,2 C 4,4 C 3,9 C 95 % 1012,9 hPa 0,0 l/m 0 min 2 min 0 W/m 6,4 km/h (2 Bft) 100,00 %
09.12.2018 23:44 5,1 C 4,4 C 3,9 C 95 % 1013,0 hPa 0,0 l/m 0 min 2 min 0 W/m 12,9 km/h (3 Bft) 100,00 %
09.12.2018 23:46 5,1 C 4,4 C 3,9 C 95 % 1013,0 hPa 0,0 l/m 0 min 2 min 0 W/m 22,5 km/h (4 Bft) 97,87 %
09.12.2018 23:48 5,1 C 4,4 C 3,9 C 95 % 1013,1 hPa 0,0 l/m 0 min 0 min 0 W/m 12,9 km/h (3 Bft) 100,00 %
09.12.2018 23:50 5,2 C 4,4 C 3,9 C 95 % 1013,1 hPa 0,0 l/m 0 min 0 min 0 W/m 12,9 km/h (3 Bft) 97,83 %
09.12.2018 23:52 5,1 C 4,4 C 4,4 C 95 % 1013,1 hPa 0,0 l/m 0 min 0 min 0 W/m 16,1 km/h (3 Bft) 100,00 %
09.12.2018 23:54 5,2 C 4,4 C 4,4 C 95 % 1013,2 hPa 0,0 l/m 0 min 0 min 0 W/m 9,7 km/h (2 Bft) 100,00 %
09.12.2018 23:56 5,2 C 4,4 C 4,4 C 95 % 1013,3 hPa 0,0 l/m 0 min 0 min 0 W/m 12,9 km/h (3 Bft) 100,00 %
09.12.2018 23:58 5,2 C 4,4 C 4,4 C 95 % 1013,3 hPa 0,0 l/m 0 min 0 min 0 W/m 19,3 km/h (3 Bft) 100,00 %
_ Min-Zeit 23:44 23:08 22:12 00:54 00:26 - - - - 23:42 13:52
Minimum _ 5,1 C 3,9 C 3,9 C 85 % 992,0 hPa - - - - 6,4 km/h (2 Bft) 89,80 %
_ Max-Zeit 00:12 12:10 02:34 14:10 23:56 03:34 12:10 06:08 12:12 09:46 00:22
Maximum _ 10,0 C 10,0 C 8,3 C 97 % 1013,3 hPa 0,8 l/m 2 min 4 min 277 W/m 48,3 km/h
N-NW (6 Bft)
100,00 %
Durchschnitt _ 7,5 C 6,4 C 5,9 C 93 % 1000,0 hPa #10,4 l/m #26 min. #13:30 h 42 W/m 20,9 km/h (4 Bft) 97,50 %
© 2018 W. Hausmann